Wetterdaten: aktuell Sonntag, 19.05.2019 13:04
Datum Zeit Temp. I. Temp. 2m Feuchte I. Luftf.2m Luftdruck Regen Wind Richtung Richtung Taupunkt Windchill Windben Empfang
19.05.2019 13:04 23,1 C 22,2 C 58 % 50 % 1002,7 hPa 0,0 l/m 6,4 km/h (2 Bft) NO 45 11,3 C 22,2 C 9,7 km/h (2 Bft) 95,65 %
19.05.2019 13:03 23,1 C 22,2 C 58 % 51 % 1002,7 hPa 0,0 l/m 8,0 km/h (2 Bft) O-NO 67 11,6 C 21,7 C 12,9 km/h (3 Bft) 100,00 %
19.05.2019 13:02 23,1 C 22,3 C 58 % 52 % 1002,6 hPa 0,0 l/m 8,0 km/h (2 Bft) NO 45 12,0 C 21,8 C 14,5 km/h (3 Bft) 100,00 %
19.05.2019 13:01 23,1 C 22,2 C 58 % 52 % 1002,7 hPa 0,0 l/m 4,8 km/h (1 Bft) O-NO 67 11,9 C 22,2 C 8,0 km/h (2 Bft) 100,00 %
19.05.2019 13:00 23,1 C 22,1 C 58 % 52 % 1002,7 hPa 0,0 l/m 3,2 km/h (1 Bft) O 90 11,8 C 22,1 C 4,8 km/h (1 Bft) 100,00 %
19.05.2019 12:59 23,1 C 22,1 C 58 % 50 % 1002,8 hPa 0,0 l/m 6,4 km/h (2 Bft) O-NO 67 11,2 C 22,1 C 9,7 km/h (2 Bft) 100,00 %
19.05.2019 12:58 23,1 C 22,0 C 58 % 49 % 1002,7 hPa 0,0 l/m 6,4 km/h (2 Bft) O-NO 67 10,8 C 22,0 C 9,7 km/h (2 Bft) 100,00 %
19.05.2019 12:57 23,1 C 21,9 C 58 % 50 % 1002,8 hPa 0,0 l/m 6,4 km/h (2 Bft) O-NO 67 11,0 C 21,9 C 8,0 km/h (2 Bft) 95,65 %
19.05.2019 12:56 23,1 C 21,9 C 58 % 49 % 1002,8 hPa 0,0 l/m 4,8 km/h (1 Bft) O-NO 67 10,7 C 21,9 C 6,4 km/h (2 Bft) 100,00 %
19.05.2019 12:55 23,1 C 21,9 C 58 % 48 % 1002,8 hPa 0,0 l/m 3,2 km/h (1 Bft) O 90 10,4 C 21,9 C 8,0 km/h (2 Bft) 100,00 %
19.05.2019 12:54 23,1 C 21,9 C 58 % 49 % 1002,8 hPa 0,0 l/m 4,8 km/h (1 Bft) O 90 10,7 C 21,9 C 9,7 km/h (2 Bft) 95,65 %
19.05.2019 12:53 23,1 C 21,8 C 58 % 52 % 1002,9 hPa 0,0 l/m 3,2 km/h (1 Bft) O 90 11,5 C 21,8 C 6,4 km/h (2 Bft) 100,00 %
19.05.2019 12:52 23,1 C 21,8 C 58 % 51 % 1002,9 hPa 0,0 l/m 6,4 km/h (2 Bft) O 90 11,2 C 21,8 C 8,0 km/h (2 Bft) 100,00 %
19.05.2019 12:51 23,1 C 21,8 C 58 % 50 % 1002,9 hPa 0,0 l/m 3,2 km/h (1 Bft) O-NO 67 10,9 C 21,8 C 8,0 km/h (2 Bft) 95,65 %
19.05.2019 12:50 23,1 C 21,9 C 58 % 50 % 1002,9 hPa 0,0 l/m 4,8 km/h (1 Bft) NO 45 11,0 C 21,9 C 6,4 km/h (2 Bft) 100,00 %
19.05.2019 12:49 23,1 C 21,9 C 58 % 50 % 1002,9 hPa 0,0 l/m 6,4 km/h (2 Bft) O-NO 67 11,0 C 21,9 C 8,0 km/h (2 Bft) 100,00 %
19.05.2019 12:48 23,1 C 21,9 C 58 % 49 % 1002,9 hPa 0,0 l/m 4,8 km/h (1 Bft) N-NO 22 10,7 C 21,9 C 8,0 km/h (2 Bft) 100,00 %
19.05.2019 12:47 23,1 C 21,8 C 58 % 51 % 1002,9 hPa 0,0 l/m 4,8 km/h (1 Bft) NO 45 11,2 C 21,8 C 9,7 km/h (2 Bft) 100,00 %
19.05.2019 12:46 23,1 C 21,8 C 58 % 50 % 1002,9 hPa 0,0 l/m 4,8 km/h (1 Bft) NO 45 10,9 C 21,8 C 9,7 km/h (2 Bft) 100,00 %
19.05.2019 12:45 23,1 C 21,7 C 58 % 48 % 1002,9 hPa 0,0 l/m 6,4 km/h (2 Bft) N-NO 22 10,2 C 21,7 C 8,0 km/h (2 Bft) 95,65 %
19.05.2019 12:44 23,1 C 21,8 C 58 % 51 % 1002,9 hPa 0,0 l/m 6,4 km/h (2 Bft) N-NO 22 11,2 C 21,8 C 9,7 km/h (2 Bft) 95,65 %
19.05.2019 12:43 23,1 C 21,7 C 58 % 49 % 1003,0 hPa 0,0 l/m 1,6 km/h (1 Bft) NO 45 10,5 C 21,7 C 3,2 km/h (1 Bft) 100,00 %
19.05.2019 12:42 23,1 C 21,7 C 58 % 48 % 1003,0 hPa 0,0 l/m 3,2 km/h (1 Bft) NO 45 10,2 C 21,7 C 4,8 km/h (1 Bft) 100,00 %
19.05.2019 12:41 23,1 C 21,7 C 58 % 48 % 1003,0 hPa 0,0 l/m 4,8 km/h (1 Bft) N 360 10,2 C 21,7 C 8,0 km/h (2 Bft) 100,00 %
19.05.2019 12:40 23,1 C 21,8 C 58 % 48 % 1003,0 hPa 0,0 l/m 6,4 km/h (2 Bft) O-NO 67 10,3 C 21,8 C 8,0 km/h (2 Bft) 100,00 %
19.05.2019 12:39 23,1 C 21,8 C 58 % 48 % 1003,0 hPa 0,0 l/m 6,4 km/h (2 Bft) O-NO 67 10,3 C 21,8 C 8,0 km/h (2 Bft) 100,00 %
19.05.2019 12:38 23,1 C 21,8 C 58 % 48 % 1002,9 hPa 0,0 l/m 4,8 km/h (1 Bft) NO 45 10,3 C 21,8 C 6,4 km/h (2 Bft) 100,00 %
19.05.2019 12:37 23,1 C 21,8 C 58 % 47 % 1003,0 hPa 0,0 l/m 6,4 km/h (2 Bft) N-NO 22 10,0 C 21,8 C 8,0 km/h (2 Bft) 100,00 %
19.05.2019 12:36 23,1 C 21,8 C 58 % 47 % 1003,0 hPa 0,0 l/m 4,8 km/h (1 Bft) N-NO 22 10,0 C 21,8 C 9,7 km/h (2 Bft) 100,00 %
19.05.2019 12:35 23,1 C 21,7 C 58 % 48 % 1003,0 hPa 0,0 l/m 1,6 km/h (1 Bft) N-NO 22 10,2 C 21,7 C 3,2 km/h (1 Bft) 95,65 %
19.05.2019 12:34 23,1 C 21,7 C 58 % 46 % 1003,0 hPa 0,0 l/m 3,2 km/h (1 Bft) N 360 9,6 C 21,7 C 3,2 km/h (1 Bft) 100,00 %
19.05.2019 12:33 23,1 C 21,7 C 58 % 46 % 1003,0 hPa 0,0 l/m 1,6 km/h (1 Bft) O-NO 67 9,6 C 21,7 C 4,8 km/h (1 Bft) 95,65 %
19.05.2019 12:32 23,1 C 21,7 C 58 % 47 % 1003,1 hPa 0,0 l/m 3,2 km/h (1 Bft) O 90 9,9 C 21,7 C 6,4 km/h (2 Bft) 100,00 %
19.05.2019 12:31 23,1 C 21,7 C 57 % 51 % 1003,1 hPa 0,0 l/m 3,2 km/h (1 Bft) O 90 11,1 C 21,7 C 4,8 km/h (1 Bft) 100,00 %
19.05.2019 12:30 23,1 C 21,5 C 57 % 53 % 1003,1 hPa 0,0 l/m 1,6 km/h (1 Bft) O 90 11,5 C 21,5 C 4,8 km/h (1 Bft) 100,00 %
19.05.2019 12:29 23,0 C 21,3 C 57 % 54 % 1003,1 hPa 0,0 l/m 1,6 km/h (1 Bft) O 90 11,6 C 21,3 C 3,2 km/h (1 Bft) 100,00 %
19.05.2019 12:28 23,1 C 21,2 C 57 % 53 % 1003,1 hPa 0,0 l/m 1,6 km/h (1 Bft) S-SO 157 11,2 C 21,2 C 3,2 km/h (1 Bft) 95,65 %
19.05.2019 12:27 23,1 C 21,0 C 57 % 53 % 1003,1 hPa 0,0 l/m 3,2 km/h (1 Bft) S-SO 157 11,0 C 21,0 C 4,8 km/h (1 Bft) 100,00 %
19.05.2019 12:26 23,1 C 20,9 C 57 % 54 % 1003,1 hPa 0,0 l/m 6,4 km/h (2 Bft) O-NO 67 11,2 C 20,9 C 9,7 km/h (2 Bft) 100,00 %
19.05.2019 12:25 23,0 C 20,9 C 57 % 54 % 1003,1 hPa 0,0 l/m 4,8 km/h (1 Bft) O-NO 67 11,2 C 20,9 C 6,4 km/h (2 Bft) 95,65 %
19.05.2019 12:24 23,0 C 20,9 C 57 % 54 % 1003,1 hPa 0,0 l/m 4,8 km/h (1 Bft) NO 45 11,2 C 20,9 C 6,4 km/h (2 Bft) 100,00 %
19.05.2019 12:23 23,0 C 20,9 C 57 % 54 % 1003,1 hPa 0,0 l/m 8,0 km/h (2 Bft) NO 45 11,2 C 20,3 C 8,0 km/h (2 Bft) 95,65 %
19.05.2019 12:22 23,0 C 20,9 C 57 % 53 % 1003,1 hPa 0,0 l/m 6,4 km/h (2 Bft) O-NO 67 11,0 C 20,9 C 9,7 km/h (2 Bft) 100,00 %
19.05.2019 12:21 23,0 C 21,0 C 57 % 52 % 1003,1 hPa 0,0 l/m 8,0 km/h (2 Bft) NO 45 10,8 C 20,4 C 11,3 km/h (2 Bft) 100,00 %
19.05.2019 12:20 23,0 C 21,1 C 57 % 54 % 1003,1 hPa 0,0 l/m 6,4 km/h (2 Bft) NO 45 11,4 C 21,1 C 9,7 km/h (2 Bft) 100,00 %
19.05.2019 12:19 23,0 C 21,1 C 57 % 54 % 1003,2 hPa 0,0 l/m 9,7 km/h (2 Bft) O-NO 67 11,4 C 19,9 C 11,3 km/h (2 Bft) 100,00 %
19.05.2019 12:18 23,0 C 21,1 C 57 % 55 % 1003,1 hPa 0,0 l/m 9,7 km/h (2 Bft) O-NO 67 11,7 C 19,9 C 12,9 km/h (3 Bft) 100,00 %
19.05.2019 12:17 23,0 C 21,1 C 58 % 56 % 1003,2 hPa 0,0 l/m 6,4 km/h (2 Bft) O-NO 67 12,0 C 21,1 C 9,7 km/h (2 Bft) 100,00 %
19.05.2019 12:16 23,0 C 21,1 C 57 % 56 % 1003,1 hPa 0,0 l/m 4,8 km/h (1 Bft) O-NO 67 12,0 C 21,1 C 8,0 km/h (2 Bft) 100,00 %
19.05.2019 12:15 23,0 C 21,0 C 57 % 58 % 1003,2 hPa 0,0 l/m 3,2 km/h (1 Bft) NW 315 12,4 C 21,0 C 4,8 km/h (1 Bft) 95,65 %
19.05.2019 12:14 22,9 C 20,9 C 57 % 59 % 1003,2 hPa 0,0 l/m 1,6 km/h (1 Bft) NW 315 12,6 C 20,9 C 3,2 km/h (1 Bft) 100,00 %
19.05.2019 12:13 23,0 C 20,8 C 57 % 57 % 1003,3 hPa 0,0 l/m 1,6 km/h (1 Bft) NO 45 12,0 C 20,8 C 3,2 km/h (1 Bft) 95,65 %
19.05.2019 12:12 23,0 C 20,8 C 57 % 58 % 1003,2 hPa 0,0 l/m 1,6 km/h (1 Bft) NO 45 12,2 C 20,8 C 3,2 km/h (1 Bft) 100,00 %
19.05.2019 12:11 23,0 C 20,7 C 57 % 55 % 1003,3 hPa 0,0 l/m 3,2 km/h (1 Bft) NO 45 11,3 C 20,7 C 4,8 km/h (1 Bft) 95,65 %
19.05.2019 12:10 22,9 C 20,7 C 57 % 58 % 1003,3 hPa 0,0 l/m 6,4 km/h (2 Bft) NO 45 12,1 C 20,7 C 11,3 km/h (2 Bft) 100,00 %
19.05.2019 12:09 23,0 C 20,7 C 56 % 59 % 1003,3 hPa 0,0 l/m 4,8 km/h (1 Bft) O-NO 67 12,4 C 20,7 C 6,4 km/h (2 Bft) 100,00 %
19.05.2019 12:08 22,9 C 20,7 C 56 % 60 % 1003,2 hPa 0,0 l/m 0,0 km/h (0 Bft) O 90 12,7 C 20,7 C 1,6 km/h (1 Bft) 100,00 %
19.05.2019 12:07 22,9 C 20,6 C 56 % 56 % 1003,2 hPa 0,0 l/m 0,0 km/h (0 Bft) N-NO 22 11,5 C 20,6 C 1,6 km/h (1 Bft) 100,00 %
19.05.2019 12:06 22,9 C 20,6 C 56 % 56 % 1003,3 hPa 0,0 l/m 3,2 km/h (1 Bft) N-NO 22 11,5 C 20,6 C 6,4 km/h (2 Bft) 100,00 %
19.05.2019 12:05 22,9 C 20,6 C 56 % 57 % 1003,2 hPa 0,0 l/m 6,4 km/h (2 Bft) N-NO 22 11,8 C 20,6 C 8,0 km/h (2 Bft) 100,00 %
19.05.2019 12:04 22,9 C 20,6 C 56 % 60 % 1003,2 hPa 0,0 l/m 3,2 km/h (1 Bft) W-NW 292 12,6 C 20,6 C 9,7 km/h (2 Bft) 100,00 %
19.05.2019 12:03 22,9 C 20,5 C 56 % 59 % 1003,3 hPa 0,0 l/m 3,2 km/h (1 Bft) W-NW 292 12,2 C 20,5 C 4,8 km/h (1 Bft) 100,00 %
19.05.2019 12:02 22,9 C 20,4 C 56 % 58 % 1003,3 hPa 0,0 l/m 1,6 km/h (1 Bft) N 360 11,9 C 20,4 C 4,8 km/h (1 Bft) 100,00 %
19.05.2019 12:01 22,9 C 20,3 C 56 % 58 % 1003,3 hPa 0,0 l/m 1,6 km/h (1 Bft) N 360 11,8 C 20,3 C 3,2 km/h (1 Bft) 95,65 %
19.05.2019 12:00 22,9 C 20,3 C 56 % 58 % 1003,3 hPa 0,0 l/m 4,8 km/h (1 Bft) N-NW 337 11,8 C 20,3 C 6,4 km/h (2 Bft) 100,00 %
19.05.2019 11:59 22,9 C 20,3 C 56 % 59 % 1003,4 hPa 0,0 l/m 6,4 km/h (2 Bft) N-NO 22 12,0 C 20,3 C 8,0 km/h (2 Bft) 95,65 %
19.05.2019 11:58 22,9 C 20,3 C 56 % 60 % 1003,4 hPa 0,0 l/m 4,8 km/h (1 Bft) NO 45 12,3 C 20,3 C 8,0 km/h (2 Bft) 100,00 %
19.05.2019 11:57 22,9 C 20,2 C 55 % 58 % 1003,3 hPa 0,0 l/m 1,6 km/h (1 Bft) NO 45 11,7 C 20,2 C 1,6 km/h (1 Bft) 100,00 %
19.05.2019 11:56 22,9 C 20,1 C 55 % 58 % 1003,3 hPa 0,0 l/m 0,0 km/h (0 Bft) N 0 11,6 C 20,1 C 0,0 km/h (0 Bft) 100,00 %
19.05.2019 11:55 22,9 C 20,1 C 55 % 57 % 1003,4 hPa 0,0 l/m 1,6 km/h (1 Bft) NO 45 11,3 C 20,1 C 6,4 km/h (2 Bft) 100,00 %
19.05.2019 11:54 22,9 C 20,1 C 55 % 58 % 1003,3 hPa 0,0 l/m 4,8 km/h (1 Bft) NO 45 11,6 C 20,1 C 8,0 km/h (2 Bft) 100,00 %
19.05.2019 11:53 22,9 C 20,0 C 55 % 59 % 1003,3 hPa 0,0 l/m 0,0 km/h (0 Bft) N 0 11,7 C 20,0 C 0,0 km/h (0 Bft) 100,00 %
19.05.2019 11:52 22,9 C 19,9 C 55 % 58 % 1003,4 hPa 0,0 l/m 1,6 km/h (1 Bft) O-NO 67 11,4 C 19,9 C 3,2 km/h (1 Bft) 100,00 %
19.05.2019 11:51 22,8 C 19,9 C 55 % 58 % 1003,4 hPa 0,0 l/m 3,2 km/h (1 Bft) O-NO 67 11,4 C 19,9 C 4,8 km/h (1 Bft) 100,00 %
19.05.2019 11:50 22,8 C 19,9 C 55 % 60 % 1003,4 hPa 0,0 l/m 3,2 km/h (1 Bft) O-NO 67 11,9 C 19,9 C 6,4 km/h (2 Bft) 100,00 %
19.05.2019 11:49 22,9 C 19,9 C 55 % 58 % 1003,4 hPa 0,0 l/m 3,2 km/h (1 Bft) N-NW 337 11,4 C 19,9 C 3,2 km/h (1 Bft) 95,65 %
19.05.2019 11:48 22,8 C 19,9 C 55 % 59 % 1003,5 hPa 0,0 l/m 3,2 km/h (1 Bft) O-NO 67 11,6 C 19,9 C 4,8 km/h (1 Bft) 100,00 %
19.05.2019 11:47 22,8 C 19,9 C 55 % 61 % 1003,4 hPa 0,0 l/m 6,4 km/h (2 Bft) O-NO 67 12,2 C 19,9 C 9,7 km/h (2 Bft) 100,00 %
19.05.2019 11:46 22,8 C 19,8 C 55 % 63 % 1003,4 hPa 0,0 l/m 4,8 km/h (1 Bft) O-NO 67 12,5 C 19,8 C 8,0 km/h (2 Bft) 100,00 %
19.05.2019 11:45 22,8 C 19,7 C 55 % 61 % 1003,4 hPa 0,0 l/m 0,0 km/h (0 Bft) O-NO 67 12,0 C 19,7 C 3,2 km/h (1 Bft) 95,65 %
19.05.2019 11:44 22,8 C 19,7 C 55 % 62 % 1003,4 hPa 0,0 l/m 1,6 km/h (1 Bft) W-SW 247 12,2 C 19,7 C 1,6 km/h (1 Bft) 95,65 %
19.05.2019 11:43 22,8 C 19,6 C 55 % 64 % 1003,4 hPa 0,0 l/m 3,2 km/h (1 Bft) W 270 12,6 C 19,6 C 4,8 km/h (1 Bft) 100,00 %
19.05.2019 11:42 22,8 C 19,6 C 55 % 63 % 1003,5 hPa 0,0 l/m 3,2 km/h (1 Bft) W-NW 292 12,4 C 19,6 C 4,8 km/h (1 Bft) 100,00 %
19.05.2019 11:41 22,8 C 19,5 C 55 % 63 % 1003,4 hPa 0,0 l/m 1,6 km/h (1 Bft) W 270 12,3 C 19,5 C 4,8 km/h (1 Bft) 100,00 %
19.05.2019 11:40 22,8 C 19,4 C 55 % 63 % 1003,5 hPa 0,0 l/m 1,6 km/h (1 Bft) W-SW 247 12,2 C 19,4 C 1,6 km/h (1 Bft) 100,00 %
19.05.2019 11:39 22,8 C 19,4 C 55 % 62 % 1003,5 hPa 0,0 l/m 1,6 km/h (1 Bft) NW 315 11,9 C 19,4 C 3,2 km/h (1 Bft) 100,00 %
19.05.2019 11:38 22,8 C 19,4 C 55 % 62 % 1003,5 hPa 0,0 l/m 1,6 km/h (1 Bft) NW 315 11,9 C 19,4 C 3,2 km/h (1 Bft) 100,00 %
19.05.2019 11:37 22,8 C 19,4 C 55 % 62 % 1003,5 hPa 0,0 l/m 0,0 km/h (0 Bft) O-NO 67 11,9 C 19,4 C 1,6 km/h (1 Bft) 100,00 %
19.05.2019 11:36 22,8 C 19,4 C 55 % 61 % 1003,5 hPa 0,0 l/m 3,2 km/h (1 Bft) O-NO 67 11,7 C 19,4 C 3,2 km/h (1 Bft) 100,00 %
19.05.2019 11:35 22,8 C 19,5 C 55 % 62 % 1003,5 hPa 0,0 l/m 3,2 km/h (1 Bft) O-NO 67 12,0 C 19,5 C 4,8 km/h (1 Bft) 100,00 %
19.05.2019 11:34 22,8 C 19,6 C 55 % 62 % 1003,6 hPa 0,0 l/m 6,4 km/h (2 Bft) O-NO 67 12,1 C 19,6 C 8,0 km/h (2 Bft) 100,00 %
19.05.2019 11:33 22,8 C 19,6 C 55 % 64 % 1003,6 hPa 0,0 l/m 4,8 km/h (1 Bft) O-NO 67 12,6 C 19,6 C 8,0 km/h (2 Bft) 100,00 %
19.05.2019 11:32 22,8 C 19,6 C 55 % 65 % 1003,5 hPa 0,0 l/m 8,0 km/h (2 Bft) O-NO 67 12,8 C 18,9 C 9,7 km/h (2 Bft) 95,65 %
19.05.2019 11:31 22,7 C 19,6 C 55 % 63 % 1003,6 hPa 0,0 l/m 4,8 km/h (1 Bft) O-NO 67 12,4 C 19,6 C 6,4 km/h (2 Bft) 100,00 %
19.05.2019 11:30 22,7 C 19,5 C 55 % 65 % 1003,6 hPa 0,0 l/m 4,8 km/h (1 Bft) NO 45 12,7 C 19,5 C 6,4 km/h (2 Bft) 95,65 %
19.05.2019 11:29 22,7 C 19,4 C 55 % 63 % 1003,6 hPa 0,0 l/m 1,6 km/h (1 Bft) NW 315 12,2 C 19,4 C 4,8 km/h (1 Bft) 95,65 %
19.05.2019 11:28 22,7 C 19,4 C 55 % 63 % 1003,5 hPa 0,0 l/m 0,0 km/h (0 Bft) NW 315 12,2 C 19,4 C 1,6 km/h (1 Bft) 100,00 %
19.05.2019 11:27 22,7 C 19,3 C 55 % 63 % 1003,6 hPa 0,0 l/m 1,6 km/h (1 Bft) NW 315 12,1 C 19,3 C 3,2 km/h (1 Bft) 95,65 %
19.05.2019 11:26 22,7 C 19,3 C 55 % 63 % 1003,6 hPa 0,0 l/m 1,6 km/h (1 Bft) NW 315 12,1 C 19,3 C 3,2 km/h (1 Bft) 100,00 %
19.05.2019 11:25 22,7 C 19,3 C 55 % 61 % 1003,6 hPa 0,0 l/m 1,6 km/h (1 Bft) O-NO 67 11,6 C 19,3 C 1,6 km/h (1 Bft) 100,00 %
19.05.2019 11:24 22,7 C 19,2 C 54 % 62 % 1003,6 hPa 0,0 l/m 3,2 km/h (1 Bft) O-NO 67 11,7 C 19,2 C 4,8 km/h (1 Bft) 100,00 %
19.05.2019 11:23 22,7 C 19,2 C 54 % 62 % 1003,6 hPa 0,0 l/m 1,6 km/h (1 Bft) O-NO 67 11,7 C 19,2 C 3,2 km/h (1 Bft) 100,00 %
19.05.2019 11:22 22,7 C 19,1 C 54 % 61 % 1003,6 hPa 0,0 l/m 1,6 km/h (1 Bft) O 90 11,4 C 19,1 C 1,6 km/h (1 Bft) 100,00 %
19.05.2019 11:21 22,7 C 19,1 C 54 % 62 % 1003,6 hPa 0,0 l/m 3,2 km/h (1 Bft) O 90 11,6 C 19,1 C 4,8 km/h (1 Bft) 95,65 %
19.05.2019 11:20 22,7 C 19,1 C 54 % 62 % 1003,6 hPa 0,0 l/m 3,2 km/h (1 Bft) NO 45 11,6 C 19,1 C 6,4 km/h (2 Bft) 95,65 %
19.05.2019 11:19 22,7 C 19,1 C 54 % 62 % 1003,6 hPa 0,0 l/m 4,8 km/h (1 Bft) O-NO 67 11,6 C 19,1 C 6,4 km/h (2 Bft) 100,00 %
19.05.2019 11:18 22,7 C 19,2 C 54 % 63 % 1003,7 hPa 0,0 l/m 4,8 km/h (1 Bft) O-NO 67 12,0 C 19,2 C 6,4 km/h (2 Bft) 100,00 %
19.05.2019 11:17 22,7 C 19,2 C 54 % 65 % 1003,6 hPa 0,0 l/m 6,4 km/h (2 Bft) O 90 12,5 C 19,2 C 8,0 km/h (2 Bft) 100,00 %
19.05.2019 11:16 22,7 C 19,1 C 54 % 65 % 1003,6 hPa 0,0 l/m 4,8 km/h (1 Bft) O-NO 67 12,4 C 19,1 C 6,4 km/h (2 Bft) 100,00 %
19.05.2019 11:15 22,7 C 19,1 C 54 % 65 % 1003,7 hPa 0,0 l/m 3,2 km/h (1 Bft) O-NO 67 12,4 C 19,1 C 4,8 km/h (1 Bft) 100,00 %
19.05.2019 11:14 22,7 C 19,0 C 54 % 63 % 1003,6 hPa 0,0 l/m 3,2 km/h (1 Bft) N-NO 22 11,8 C 19,0 C 4,8 km/h (1 Bft) 100,00 %
19.05.2019 11:13 22,7 C 19,0 C 54 % 63 % 1003,7 hPa 0,0 l/m 4,8 km/h (1 Bft) NO 45 11,8 C 19,0 C 6,4 km/h (2 Bft) 100,00 %
19.05.2019 11:12 22,7 C 19,0 C 54 % 64 % 1003,7 hPa 0,0 l/m 4,8 km/h (1 Bft) NO 45 12,0 C 19,0 C 6,4 km/h (2 Bft) 100,00 %
19.05.2019 11:11 22,7 C 19,0 C 54 % 64 % 1003,6 hPa 0,0 l/m 3,2 km/h (1 Bft) N-NO 22 12,0 C 19,0 C 3,2 km/h (1 Bft) 95,65 %
19.05.2019 11:10 22,7 C 19,1 C 54 % 64 % 1003,6 hPa 0,0 l/m 6,4 km/h (2 Bft) NO 45 12,1 C 19,1 C 8,0 km/h (2 Bft) 100,00 %
19.05.2019 11:09 22,7 C 19,1 C 54 % 64 % 1003,6 hPa 0,0 l/m 6,4 km/h (2 Bft) NO 45 12,1 C 19,1 C 8,0 km/h (2 Bft) 95,65 %
19.05.2019 11:08 22,7 C 19,0 C 54 % 65 % 1003,7 hPa 0,0 l/m 4,8 km/h (1 Bft) N-NO 22 12,3 C 19,0 C 6,4 km/h (2 Bft) 100,00 %
19.05.2019 11:07 22,7 C 19,0 C 54 % 67 % 1003,6 hPa 0,0 l/m 3,2 km/h (1 Bft) N 360 12,7 C 19,0 C 6,4 km/h (2 Bft) 100,00 %
19.05.2019 11:06 22,7 C 18,9 C 54 % 66 % 1003,6 hPa 0,0 l/m 1,6 km/h (1 Bft) N-NW 337 12,4 C 18,9 C 1,6 km/h (1 Bft) 100,00 %
19.05.2019 11:05 22,7 C 18,8 C 54 % 66 % 1003,7 hPa 0,0 l/m 1,6 km/h (1 Bft) N-NW 337 12,3 C 18,8 C 3,2 km/h (1 Bft) 100,00 %
19.05.2019 11:04 22,6 C 18,7 C 54 % 65 % 1003,7 hPa 0,0 l/m 0,0 km/h (0 Bft) N-NO 22 12,0 C 18,7 C 1,6 km/h (1 Bft) 100,00 %
19.05.2019 11:03 22,7 C 18,7 C 54 % 65 % 1003,7 hPa 0,0 l/m 3,2 km/h (1 Bft) N-NO 22 12,0 C 18,7 C 4,8 km/h (1 Bft) 95,65 %
19.05.2019 11:02 22,6 C 18,7 C 54 % 66 % 1003,7 hPa 0,0 l/m 6,4 km/h (2 Bft) NO 45 12,2 C 18,7 C 8,0 km/h (2 Bft) 100,00 %
19.05.2019 11:01 22,6 C 18,8 C 54 % 67 % 1003,7 hPa 0,0 l/m 4,8 km/h (1 Bft) NO 45 12,5 C 18,8 C 8,0 km/h (2 Bft) 100,00 %
19.05.2019 11:00 22,6 C 18,8 C 54 % 66 % 1003,7 hPa 0,0 l/m 6,4 km/h (2 Bft) NO 45 12,3 C 18,8 C 9,7 km/h (2 Bft) 100,00 %
19.05.2019 10:59 22,6 C 18,8 C 54 % 68 % 1003,7 hPa 0,0 l/m 8,0 km/h (2 Bft) NO 45 12,8 C 18,1 C 11,3 km/h (2 Bft) 100,00 %
19.05.2019 10:58 22,6 C 18,7 C 54 % 68 % 1003,8 hPa 0,0 l/m 4,8 km/h (1 Bft) N-NO 22 12,7 C 18,7 C 8,0 km/h (2 Bft) 100,00 %
19.05.2019 10:57 22,6 C 18,6 C 54 % 67 % 1003,7 hPa 0,0 l/m 6,4 km/h (2 Bft) O-NO 67 12,3 C 18,6 C 8,0 km/h (2 Bft) 100,00 %
19.05.2019 10:56 22,6 C 18,5 C 54 % 67 % 1003,7 hPa 0,0 l/m 4,8 km/h (1 Bft) NO 45 12,3 C 18,5 C 6,4 km/h (2 Bft) 100,00 %
19.05.2019 10:55 22,6 C 18,5 C 54 % 66 % 1003,7 hPa 0,0 l/m 4,8 km/h (1 Bft) NO 45 12,0 C 18,5 C 8,0 km/h (2 Bft) 100,00 %
19.05.2019 10:54 22,6 C 18,5 C 54 % 66 % 1003,8 hPa 0,0 l/m 4,8 km/h (1 Bft) NO 45 12,0 C 18,5 C 6,4 km/h (2 Bft) 100,00 %
19.05.2019 10:53 22,6 C 18,5 C 54 % 66 % 1003,7 hPa 0,0 l/m 4,8 km/h (1 Bft) NO 45 12,0 C 18,5 C 4,8 km/h (1 Bft) 100,00 %
19.05.2019 10:52 22,6 C 18,5 C 54 % 66 % 1003,7 hPa 0,0 l/m 6,4 km/h (2 Bft) O-NO 67 12,0 C 18,5 C 8,0 km/h (2 Bft) 100,00 %
19.05.2019 10:51 22,6 C 18,5 C 54 % 66 % 1003,7 hPa 0,0 l/m 8,0 km/h (2 Bft) NO 45 12,0 C 17,8 C 11,3 km/h (2 Bft) 100,00 %
19.05.2019 10:50 22,5 C 18,5 C 54 % 67 % 1003,8 hPa 0,0 l/m 4,8 km/h (1 Bft) NO 45 12,3 C 18,5 C 8,0 km/h (2 Bft) 100,00 %
19.05.2019 10:49 22,6 C 18,4 C 54 % 67 % 1003,7 hPa 0,0 l/m 0,0 km/h (0 Bft) NO 45 12,2 C 18,4 C 3,2 km/h (1 Bft) 100,00 %
19.05.2019 10:48 22,5 C 18,4 C 53 % 67 % 1003,7 hPa 0,0 l/m 0,0 km/h (0 Bft) NO 45 12,2 C 18,4 C 1,6 km/h (1 Bft) 100,00 %
19.05.2019 10:47 22,5 C 18,4 C 53 % 66 % 1003,7 hPa 0,0 l/m 0,0 km/h (0 Bft) N 0 11,9 C 18,4 C 0,0 km/h (0 Bft) 100,00 %
19.05.2019 10:46 22,5 C 18,4 C 53 % 66 % 1003,8 hPa 0,0 l/m 1,6 km/h (1 Bft) NO 45 11,9 C 18,4 C 3,2 km/h (1 Bft) 100,00 %
19.05.2019 10:45 22,5 C 18,3 C 53 % 68 % 1003,8 hPa 0,0 l/m 1,6 km/h (1 Bft) NO 45 12,3 C 18,3 C 4,8 km/h (1 Bft) 100,00 %
19.05.2019 10:44 22,4 C 18,3 C 53 % 67 % 1003,7 hPa 0,0 l/m 3,2 km/h (1 Bft) O-NO 67 12,1 C 18,3 C 6,4 km/h (2 Bft) 100,00 %
19.05.2019 10:43 22,4 C 18,2 C 53 % 67 % 1003,8 hPa 0,0 l/m 1,6 km/h (1 Bft) O-SO 112 12,0 C 18,2 C 1,6 km/h (1 Bft) 100,00 %
19.05.2019 10:42 22,4 C 18,2 C 53 % 67 % 1003,8 hPa 0,0 l/m 3,2 km/h (1 Bft) O-SO 112 12,0 C 18,2 C 9,7 km/h (2 Bft) 100,00 %
19.05.2019 10:41 22,4 C 18,2 C 53 % 67 % 1003,7 hPa 0,0 l/m 6,4 km/h (2 Bft) O-NO 67 12,0 C 18,2 C 11,3 km/h (2 Bft) 100,00 %
19.05.2019 10:40 22,4 C 18,3 C 53 % 68 % 1003,7 hPa 0,0 l/m 6,4 km/h (2 Bft) NO 45 12,3 C 18,3 C 9,7 km/h (2 Bft) 100,00 %
19.05.2019 10:39 22,4 C 18,3 C 53 % 68 % 1003,7 hPa 0,0 l/m 1,6 km/h (1 Bft) NO 45 12,3 C 18,3 C 3,2 km/h (1 Bft) 86,96 %
19.05.2019 10:38 22,4 C 18,2 C 53 % 69 % 1003,8 hPa 0,0 l/m 4,8 km/h (1 Bft) NO 45 12,4 C 18,2 C 6,4 km/h (2 Bft) 100,00 %
19.05.2019 10:37 22,4 C 18,2 C 53 % 67 % 1003,7 hPa 0,0 l/m 4,8 km/h (1 Bft) NO 45 12,0 C 18,2 C 6,4 km/h (2 Bft) 95,65 %
19.05.2019 10:36 22,3 C 18,2 C 53 % 68 % 1003,8 hPa 0,0 l/m 4,8 km/h (1 Bft) NO 45 12,2 C 18,2 C 6,4 km/h (2 Bft) 100,00 %
19.05.2019 10:35 22,3 C 18,2 C 53 % 67 % 1003,8 hPa 0,0 l/m 6,4 km/h (2 Bft) NO 45 12,0 C 18,2 C 8,0 km/h (2 Bft) 100,00 %
19.05.2019 10:34 22,3 C 18,3 C 53 % 67 % 1003,7 hPa 0,0 l/m 4,8 km/h (1 Bft) NO 45 12,1 C 18,3 C 6,4 km/h (2 Bft) 100,00 %
19.05.2019 10:33 22,3 C 18,3 C 53 % 69 % 1003,8 hPa 0,0 l/m 6,4 km/h (2 Bft) NO 45 12,5 C 18,3 C 8,0 km/h (2 Bft) 100,00 %
19.05.2019 10:32 22,3 C 18,3 C 53 % 67 % 1003,8 hPa 0,0 l/m 6,4 km/h (2 Bft) O-NO 67 12,1 C 18,3 C 8,0 km/h (2 Bft) 95,65 %
19.05.2019 10:31 22,3 C 18,4 C 53 % 66 % 1003,8 hPa 0,0 l/m 3,2 km/h (1 Bft) NO 45 11,9 C 18,4 C 6,4 km/h (2 Bft) 100,00 %
19.05.2019 10:30 22,2 C 18,4 C 53 % 66 % 1003,8 hPa 0,0 l/m 4,8 km/h (1 Bft) NO 45 11,9 C 18,4 C 6,4 km/h (2 Bft) 91,30 %
19.05.2019 10:29 22,3 C 18,6 C 53 % 67 % 1003,8 hPa 0,0 l/m 4,8 km/h (1 Bft) O-NO 67 12,3 C 18,6 C 6,4 km/h (2 Bft) 100,00 %
19.05.2019 10:28 22,2 C 18,6 C 53 % 69 % 1003,8 hPa 0,0 l/m 1,6 km/h (1 Bft) NO 45 12,8 C 18,6 C 3,2 km/h (1 Bft) 100,00 %
19.05.2019 10:27 22,2 C 18,5 C 53 % 68 % 1003,7 hPa 0,0 l/m 1,6 km/h (1 Bft) NO 45 12,5 C 18,5 C 3,2 km/h (1 Bft) 100,00 %
19.05.2019 10:26 22,2 C 18,5 C 53 % 68 % 1003,8 hPa 0,0 l/m 3,2 km/h (1 Bft) SW 225 12,5 C 18,5 C 4,8 km/h (1 Bft) 100,00 %
19.05.2019 10:25 22,2 C 18,6 C 53 % 68 % 1003,8 hPa 0,0 l/m 1,6 km/h (1 Bft) SW 225 12,6 C 18,6 C 4,8 km/h (1 Bft) 100,00 %
19.05.2019 10:24 22,2 C 18,5 C 53 % 66 % 1003,8 hPa 0,0 l/m 1,6 km/h (1 Bft) SW 225 12,0 C 18,5 C 3,2 km/h (1 Bft) 100,00 %
19.05.2019 10:23 22,1 C 18,5 C 52 % 66 % 1003,8 hPa 0,0 l/m 1,6 km/h (1 Bft) SW 225 12,0 C 18,5 C 3,2 km/h (1 Bft) 95,65 %
19.05.2019 10:22 22,1 C 18,4 C 52 % 66 % 1003,8 hPa 0,0 l/m 1,6 km/h (1 Bft) S 180 11,9 C 18,4 C 3,2 km/h (1 Bft) 95,65 %
19.05.2019 10:21 22,1 C 18,4 C 52 % 67 % 1003,8 hPa 0,0 l/m 1,6 km/h (1 Bft) S-SW 202 12,2 C 18,4 C 3,2 km/h (1 Bft) 100,00 %
19.05.2019 10:20 22,1 C 18,3 C 52 % 68 % 1003,8 hPa 0,0 l/m 1,6 km/h (1 Bft) O-SO 112 12,3 C 18,3 C 3,2 km/h (1 Bft) 100,00 %
19.05.2019 10:19 22,1 C 18,2 C 52 % 70 % 1003,8 hPa 0,0 l/m 1,6 km/h (1 Bft) O 90 12,6 C 18,2 C 4,8 km/h (1 Bft) 100,00 %
19.05.2019 10:18 22,1 C 18,2 C 52 % 70 % 1003,8 hPa 0,0 l/m 0,0 km/h (0 Bft) S-SW 202 12,6 C 18,2 C 1,6 km/h (1 Bft) 95,65 %
19.05.2019 10:17 22,1 C 18,0 C 52 % 69 % 1003,8 hPa 0,0 l/m 0,0 km/h (0 Bft) S-SW 202 12,2 C 18,0 C 1,6 km/h (1 Bft) 100,00 %
19.05.2019 10:16 22,0 C 17,9 C 52 % 69 % 1003,8 hPa 0,0 l/m 0,0 km/h (0 Bft) S-SW 202 12,1 C 17,9 C 1,6 km/h (1 Bft) 95,65 %
19.05.2019 10:15 22,0 C 17,8 C 52 % 69 % 1003,9 hPa 0,0 l/m 0,0 km/h (0 Bft) S-SW 202 12,0 C 17,8 C 1,6 km/h (1 Bft) 100,00 %
19.05.2019 10:14 22,0 C 17,7 C 51 % 69 % 1003,8 hPa 0,0 l/m 0,0 km/h (0 Bft) S-SW 202 11,9 C 17,7 C 1,6 km/h (1 Bft) 100,00 %
19.05.2019 10:13 22,0 C 17,6 C 51 % 69 % 1003,9 hPa 0,0 l/m 1,6 km/h (1 Bft) O 90 11,8 C 17,6 C 3,2 km/h (1 Bft) 100,00 %
19.05.2019 10:12 22,0 C 17,5 C 51 % 70 % 1003,9 hPa 0,0 l/m 3,2 km/h (1 Bft) O-SO 112 12,0 C 17,5 C 4,8 km/h (1 Bft) 100,00 %
19.05.2019 10:11 22,0 C 17,3 C 51 % 69 % 1003,9 hPa 0,0 l/m 1,6 km/h (1 Bft) O 90 11,6 C 17,3 C 1,6 km/h (1 Bft) 100,00 %
19.05.2019 10:10 22,0 C 17,3 C 51 % 70 % 1003,9 hPa 0,0 l/m 3,2 km/h (1 Bft) O 90 11,8 C 17,3 C 3,2 km/h (1 Bft) 100,00 %
19.05.2019 10:09 22,0 C 17,2 C 51 % 70 % 1003,9 hPa 0,0 l/m 1,6 km/h (1 Bft) O-NO 67 11,7 C 17,2 C 4,8 km/h (1 Bft) 100,00 %
19.05.2019 10:08 22,0 C 17,2 C 51 % 69 % 1004,0 hPa 0,0 l/m 3,2 km/h (1 Bft) O 90 11,5 C 17,2 C 8,0 km/h (2 Bft) 100,00 %
19.05.2019 10:07 22,0 C 17,2 C 51 % 70 % 1003,9 hPa 0,0 l/m 3,2 km/h (1 Bft) O-NO 67 11,7 C 17,2 C 6,4 km/h (2 Bft) 95,65 %
19.05.2019 10:06 22,0 C 17,2 C 51 % 69 % 1003,9 hPa 0,0 l/m 4,8 km/h (1 Bft) O-NO 67 11,5 C 17,2 C 6,4 km/h (2 Bft) 95,65 %
19.05.2019 10:05 22,0 C 17,2 C 51 % 68 % 1003,9 hPa 0,0 l/m 3,2 km/h (1 Bft) O-NO 67 11,2 C 17,2 C 3,2 km/h (1 Bft) 95,65 %
19.05.2019 10:04 22,0 C 17,1 C 51 % 70 % 1004,0 hPa 0,0 l/m 1,6 km/h (1 Bft) O-NO 67 11,6 C 17,1 C 4,8 km/h (1 Bft) 100,00 %
19.05.2019 10:03 22,0 C 17,1 C 51 % 71 % 1004,0 hPa 0,0 l/m 1,6 km/h (1 Bft) O-SO 112 11,8 C 17,1 C 4,8 km/h (1 Bft) 100,00 %
19.05.2019 10:02 22,0 C 17,0 C 51 % 71 % 1004,0 hPa 0,0 l/m 1,6 km/h (1 Bft) NO 45 11,7 C 17,0 C 4,8 km/h (1 Bft) 100,00 %
19.05.2019 10:01 22,0 C 16,9 C 51 % 71 % 1003,9 hPa 0,0 l/m 0,0 km/h (0 Bft) N 0 11,6 C 16,9 C 0,0 km/h (0 Bft) 100,00 %
19.05.2019 10:00 22,1 C 16,9 C 51 % 71 % 1003,9 hPa 0,0 l/m 0,0 km/h (0 Bft) NO 45 11,6 C 16,9 C 1,6 km/h (1 Bft) 100,00 %
19.05.2019 09:59 22,1 C 16,9 C 51 % 70 % 1003,9 hPa 0,0 l/m 1,6 km/h (1 Bft) NO 45 11,4 C 16,9 C 3,2 km/h (1 Bft) 95,65 %
19.05.2019 09:58 22,1 C 16,9 C 51 % 69 % 1004,0 hPa 0,0 l/m 3,2 km/h (1 Bft) NO 45 11,2 C 16,9 C 4,8 km/h (1 Bft) 100,00 %
19.05.2019 09:57 22,1 C 17,0 C 51 % 70 % 1003,9 hPa 0,0 l/m 3,2 km/h (1 Bft) NO 45 11,5 C 17,0 C 4,8 km/h (1 Bft) 100,00 %
19.05.2019 09:56 22,1 C 17,0 C 51 % 70 % 1003,9 hPa 0,0 l/m 3,2 km/h (1 Bft) N-NO 22 11,5 C 17,0 C 4,8 km/h (1 Bft) 100,00 %
19.05.2019 09:55 22,1 C 17,1 C 50 % 71 % 1003,9 hPa 0,0 l/m 4,8 km/h (1 Bft) N-NO 22 11,8 C 17,1 C 6,4 km/h (2 Bft) 100,00 %
19.05.2019 09:54 22,1 C 17,0 C 50 % 71 % 1003,9 hPa 0,0 l/m 3,2 km/h (1 Bft) NO 45 11,7 C 17,0 C 6,4 km/h (2 Bft) 100,00 %
19.05.2019 09:53 22,1 C 16,9 C 50 % 71 % 1003,9 hPa 0,0 l/m 1,6 km/h (1 Bft) O-NO 67 11,6 C 16,9 C 3,2 km/h (1 Bft) 100,00 %
19.05.2019 09:52 22,1 C 16,9 C 50 % 72 % 1003,9 hPa 0,0 l/m 0,0 km/h (0 Bft) W 270 11,8 C 16,9 C 1,6 km/h (1 Bft) 95,65 %
19.05.2019 09:51 22,1 C 16,7 C 50 % 73 % 1003,9 hPa 0,0 l/m 0,0 km/h (0 Bft) W 270 11,8 C 16,7 C 1,6 km/h (1 Bft) 95,65 %
19.05.2019 09:50 22,1 C 16,7 C 51 % 73 % 1003,9 hPa 0,0 l/m 0,0 km/h (0 Bft) W 270 11,8 C 16,7 C 1,6 km/h (1 Bft) 100,00 %
19.05.2019 09:49 22,2 C 16,6 C 51 % 72 % 1003,9 hPa 0,0 l/m 1,6 km/h (1 Bft) W 270 11,5 C 16,6 C 1,6 km/h (1 Bft) 95,65 %
19.05.2019 09:48 22,2 C 16,4 C 51 % 71 % 1003,9 hPa 0,0 l/m 0,0 km/h (0 Bft) N 0 11,1 C 16,4 C 0,0 km/h (0 Bft) 100,00 %
19.05.2019 09:47 22,2 C 16,4 C 51 % 71 % 1004,0 hPa 0,0 l/m 0,0 km/h (0 Bft) NW 315 11,1 C 16,4 C 1,6 km/h (1 Bft) 100,00 %
19.05.2019 09:46 22,2 C 16,4 C 51 % 72 % 1004,0 hPa 0,0 l/m 1,6 km/h (1 Bft) NW 315 11,3 C 16,4 C 3,2 km/h (1 Bft) 91,30 %
19.05.2019 09:45 22,2 C 16,4 C 51 % 73 % 1004,0 hPa 0,0 l/m 1,6 km/h (1 Bft) O-NO 67 11,5 C 16,4 C 1,6 km/h (1 Bft) 100,00 %
19.05.2019 09:44 22,2 C 16,4 C 51 % 72 % 1004,0 hPa 0,0 l/m 1,6 km/h (1 Bft) O-NO 67 11,3 C 16,4 C 3,2 km/h (1 Bft) 100,00 %
19.05.2019 09:43 22,2 C 16,4 C 51 % 71 % 1004,0 hPa 0,0 l/m 1,6 km/h (1 Bft) O-NO 67 11,1 C 16,4 C 3,2 km/h (1 Bft) 100,00 %
19.05.2019 09:42 22,2 C 16,5 C 51 % 71 % 1004,0 hPa 0,0 l/m 3,2 km/h (1 Bft) O-NO 67 11,2 C 16,5 C 3,2 km/h (1 Bft) 95,65 %
19.05.2019 09:41 22,2 C 16,6 C 51 % 71 % 1004,0 hPa 0,0 l/m 3,2 km/h (1 Bft) O-NO 67 11,3 C 16,6 C 4,8 km/h (1 Bft) 100,00 %
19.05.2019 09:40 22,2 C 16,6 C 51 % 72 % 1004,1 hPa 0,0 l/m 3,2 km/h (1 Bft) O-NO 67 11,5 C 16,6 C 4,8 km/h (1 Bft) 95,65 %
19.05.2019 09:39 22,2 C 16,6 C 51 % 74 % 1004,0 hPa 0,0 l/m 4,8 km/h (1 Bft) O-NO 67 11,9 C 16,6 C 4,8 km/h (1 Bft) 100,00 %
19.05.2019 09:38 22,2 C 16,6 C 51 % 74 % 1004,0 hPa 0,0 l/m 1,6 km/h (1 Bft) O-NO 67 11,9 C 16,6 C 3,2 km/h (1 Bft) 100,00 %
19.05.2019 09:37 22,2 C 16,4 C 51 % 74 % 1004,0 hPa 0,0 l/m 1,6 km/h (1 Bft) NO 45 11,8 C 16,4 C 3,2 km/h (1 Bft) 100,00 %
19.05.2019 09:36 22,2 C 16,4 C 51 % 73 % 1004,1 hPa 0,0 l/m 1,6 km/h (1 Bft) NW 315 11,5 C 16,4 C 3,2 km/h (1 Bft) 100,00 %
19.05.2019 09:35 22,3 C 16,3 C 51 % 75 % 1004,0 hPa 0,0 l/m 1,6 km/h (1 Bft) S-SW 202 11,9 C 16,3 C 3,2 km/h (1 Bft) 95,65 %
19.05.2019 09:34 22,3 C 16,2 C 51 % 74 % 1004,0 hPa 0,0 l/m 0,0 km/h (0 Bft) S-SW 202 11,6 C 16,2 C 1,6 km/h (1 Bft) 100,00 %
19.05.2019 09:33 22,3 C 16,1 C 51 % 74 % 1004,1 hPa 0,0 l/m 1,6 km/h (1 Bft) W-SW 247 11,5 C 16,1 C 1,6 km/h (1 Bft) 95,65 %
19.05.2019 09:32 22,3 C 16,1 C 51 % 74 % 1004,0 hPa 0,0 l/m 1,6 km/h (1 Bft) NW 315 11,5 C 16,1 C 3,2 km/h (1 Bft) 100,00 %
19.05.2019 09:31 22,3 C 16,1 C 52 % 73 % 1004,1 hPa 0,0 l/m 0,0 km/h (0 Bft) NW 315 11,3 C 16,1 C 1,6 km/h (1 Bft) 100,00 %
19.05.2019 09:30 22,4 C 16,0 C 52 % 74 % 1004,1 hPa 0,0 l/m 1,6 km/h (1 Bft) N 360 11,4 C 16,0 C 3,2 km/h (1 Bft) 100,00 %
19.05.2019 09:29 22,4 C 15,9 C 52 % 74 % 1004,1 hPa 0,0 l/m 1,6 km/h (1 Bft) N 360 11,3 C 15,9 C 3,2 km/h (1 Bft) 100,00 %
19.05.2019 09:28 22,4 C 15,8 C 52 % 74 % 1004,0 hPa 0,0 l/m 1,6 km/h (1 Bft) N-NW 337 11,2 C 15,8 C 3,2 km/h (1 Bft) 100,00 %
19.05.2019 09:27 22,4 C 15,8 C 52 % 76 % 1004,1 hPa 0,0 l/m 0,0 km/h (0 Bft) O-NO 67 11,6 C 15,8 C 3,2 km/h (1 Bft) 100,00 %
19.05.2019 09:26 22,4 C 15,6 C 52 % 76 % 1004,2 hPa 0,0 l/m 0,0 km/h (0 Bft) O 90 11,4 C 15,6 C 1,6 km/h (1 Bft) 100,00 %
19.05.2019 09:25 22,5 C 15,5 C 52 % 77 % 1004,2 hPa 0,0 l/m 0,0 km/h (0 Bft) O-NO 67 11,5 C 15,5 C 1,6 km/h (1 Bft) 95,65 %
19.05.2019 09:24 22,6 C 15,3 C 53 % 77 % 1004,1 hPa 0,0 l/m 0,0 km/h (0 Bft) N 0 11,3 C 15,3 C 0,0 km/h (0 Bft) 100,00 %
19.05.2019 09:23 22,6 C 15,2 C 53 % 76 % 1004,2 hPa 0,0 l/m 0,0 km/h (0 Bft) O-NO 67 11,0 C 15,2 C 1,6 km/h (1 Bft) 95,65 %
19.05.2019 09:22 22,6 C 15,1 C 54 % 77 % 1004,2 hPa 0,0 l/m 0,0 km/h (0 Bft) O-NO 67 11,1 C 15,1 C 1,6 km/h (1 Bft) 100,00 %
19.05.2019 09:21 22,6 C 14,9 C 55 % 78 % 1004,2 hPa 0,0 l/m 0,0 km/h (0 Bft) N 0 11,1 C 14,9 C 0,0 km/h (0 Bft) 100,00 %
19.05.2019 09:20 22,6 C 14,8 C 55 % 78 % 1004,2 hPa 0,0 l/m 0,0 km/h (0 Bft) N 0 11,0 C 14,8 C 0,0 km/h (0 Bft) 100,00 %
19.05.2019 09:19 22,6 C 14,7 C 55 % 77 % 1004,2 hPa 0,0 l/m 0,0 km/h (0 Bft) O-NO 67 10,7 C 14,7 C 1,6 km/h (1 Bft) 100,00 %
19.05.2019 09:18 22,7 C 14,6 C 55 % 78 % 1004,2 hPa 0,0 l/m 1,6 km/h (1 Bft) O-NO 67 10,8 C 14,6 C 1,6 km/h (1 Bft) 95,65 %
19.05.2019 09:17 22,7 C 14,4 C 56 % 77 % 1004,2 hPa 0,0 l/m 0,0 km/h (0 Bft) N-NO 22 10,4 C 14,4 C 1,6 km/h (1 Bft) 95,65 %
19.05.2019 09:16 22,7 C 14,4 C 57 % 78 % 1004,3 hPa 0,0 l/m 0,0 km/h (0 Bft) N-NO 22 10,6 C 14,4 C 1,6 km/h (1 Bft) 95,65 %
19.05.2019 09:15 22,7 C 14,3 C 59 % 78 % 1004,2 hPa 0,0 l/m 0,0 km/h (0 Bft) N-NO 22 10,5 C 14,3 C 1,6 km/h (1 Bft) 100,00 %
19.05.2019 09:14 22,7 C 14,2 C 60 % 78 % 1004,2 hPa 0,0 l/m 1,6 km/h (1 Bft) N-NO 22 10,4 C 14,2 C 3,2 km/h (1 Bft) 100,00 %
19.05.2019 09:13 22,7 C 14,2 C 61 % 78 % 1004,2 hPa 0,0 l/m 1,6 km/h (1 Bft) O-NO 67 10,4 C 14,2 C 1,6 km/h (1 Bft) 95,65 %
19.05.2019 09:12 22,7 C 14,1 C 61 % 79 % 1004,2 hPa 0,0 l/m 1,6 km/h (1 Bft) O-NO 67 10,5 C 14,1 C 1,6 km/h (1 Bft) 100,00 %
19.05.2019 09:11 22,7 C 14,0 C 61 % 79 % 1004,2 hPa 0,0 l/m 1,6 km/h (1 Bft) O 90 10,4 C 14,0 C 1,6 km/h (1 Bft) 100,00 %
19.05.2019 09:10 22,7 C 13,9 C 61 % 79 % 1004,3 hPa 0,0 l/m 1,6 km/h (1 Bft) O 90 10,3 C 13,9 C 1,6 km/h (1 Bft) 100,00 %
19.05.2019 09:09 22,7 C 13,9 C 61 % 79 % 1004,2 hPa 0,0 l/m 1,6 km/h (1 Bft) O-SO 112 10,3 C 13,9 C 3,2 km/h (1 Bft) 100,00 %
19.05.2019 09:08 22,7 C 13,8 C 61 % 79 % 1004,2 hPa 0,0 l/m 3,2 km/h (1 Bft) O 90 10,2 C 13,8 C 3,2 km/h (1 Bft) 100,00 %
19.05.2019 09:07 22,7 C 13,8 C 61 % 79 % 1004,2 hPa 0,0 l/m 1,6 km/h (1 Bft) O 90 10,2 C 13,8 C 6,4 km/h (2 Bft) 100,00 %
19.05.2019 09:06 22,7 C 13,7 C 61 % 79 % 1004,2 hPa 0,0 l/m 1,6 km/h (1 Bft) N-NO 22 10,1 C 13,7 C 3,2 km/h (1 Bft) 100,00 %
19.05.2019 09:05 22,7 C 13,7 C 61 % 79 % 1004,3 hPa 0,0 l/m 3,2 km/h (1 Bft) NO 45 10,1 C 13,7 C 4,8 km/h (1 Bft) 100,00 %
19.05.2019 09:04 22,7 C 13,7 C 61 % 79 % 1004,3 hPa 0,0 l/m 1,6 km/h (1 Bft) O-NO 67 10,1 C 13,7 C 3,2 km/h (1 Bft) 100,00 %
19.05.2019 09:03 22,7 C 13,7 C 61 % 79 % 1004,3 hPa 0,0 l/m 0,0 km/h (0 Bft) O-NO 67 10,1 C 13,7 C 1,6 km/h (1 Bft) 100,00 %
19.05.2019 09:02 22,7 C 13,7 C 61 % 80 % 1004,3 hPa 0,0 l/m 1,6 km/h (1 Bft) O-NO 67 10,3 C 13,7 C 3,2 km/h (1 Bft) 100,00 %
19.05.2019 09:01 22,7 C 13,7 C 61 % 80 % 1004,2 hPa 0,0 l/m 3,2 km/h (1 Bft) O-NO 67 10,3 C 13,7 C 4,8 km/h (1 Bft) 95,65 %
19.05.2019 09:00 22,7 C 13,6 C 61 % 81 % 1004,3 hPa 0,0 l/m 4,8 km/h (1 Bft) N-NO 22 10,4 C 13,6 C 6,4 km/h (2 Bft) 100,00 %
19.05.2019 08:59 22,7 C 13,6 C 61 % 81 % 1004,4 hPa 0,0 l/m 3,2 km/h (1 Bft) N-NO 22 10,4 C 13,6 C 4,8 km/h (1 Bft) 91,30 %
19.05.2019 08:58 22,7 C 13,5 C 61 % 80 % 1004,3 hPa 0,0 l/m 3,2 km/h (1 Bft) N 360 10,1 C 13,5 C 4,8 km/h (1 Bft) 91,30 %
19.05.2019 08:57 22,7 C 13,5 C 61 % 80 % 1004,3 hPa 0,0 l/m 3,2 km/h (1 Bft) NO 45 10,1 C 13,5 C 4,8 km/h (1 Bft) 100,00 %
19.05.2019 08:56 22,7 C 13,4 C 61 % 81 % 1004,4 hPa 0,0 l/m 3,2 km/h (1 Bft) NO 45 10,2 C 13,4 C 4,8 km/h (1 Bft) 100,00 %
19.05.2019 08:55 22,7 C 13,4 C 61 % 81 % 1004,4 hPa 0,0 l/m 3,2 km/h (1 Bft) NO 45 10,2 C 13,4 C 4,8 km/h (1 Bft) 100,00 %
19.05.2019 08:54 22,7 C 13,4 C 61 % 81 % 1004,4 hPa 0,0 l/m 3,2 km/h (1 Bft) O-NO 67 10,2 C 13,4 C 6,4 km/h (2 Bft) 100,00 %
19.05.2019 08:53 22,7 C 13,4 C 61 % 81 % 1004,3 hPa 0,0 l/m 3,2 km/h (1 Bft) O-NO 67 10,2 C 13,4 C 3,2 km/h (1 Bft) 100,00 %
19.05.2019 08:52 22,7 C 13,3 C 61 % 82 % 1004,3 hPa 0,0 l/m 1,6 km/h (1 Bft) O-NO 67 10,3 C 13,3 C 3,2 km/h (1 Bft) 95,65 %
19.05.2019 08:51 22,7 C 13,3 C 61 % 81 % 1004,4 hPa 0,0 l/m 1,6 km/h (1 Bft) NO 45 10,1 C 13,3 C 3,2 km/h (1 Bft) 100,00 %
19.05.2019 08:50 22,7 C 13,2 C 61 % 81 % 1004,4 hPa 0,0 l/m 3,2 km/h (1 Bft) NO 45 10,0 C 13,2 C 4,8 km/h (1 Bft) 100,00 %
19.05.2019 08:49 22,7 C 13,2 C 61 % 81 % 1004,4 hPa 0,0 l/m 1,6 km/h (1 Bft) O-NO 67 10,0 C 13,2 C 3,2 km/h (1 Bft) 100,00 %
19.05.2019 08:48 22,7 C 13,1 C 61 % 81 % 1004,4 hPa 0,0 l/m 0,0 km/h (0 Bft) N 0 9,9 C 13,1 C 0,0 km/h (0 Bft) 100,00 %
19.05.2019 08:47 22,7 C 13,1 C 61 % 81 % 1004,3 hPa 0,0 l/m 0,0 km/h (0 Bft) O-NO 67 9,9 C 13,1 C 1,6 km/h (1 Bft) 95,65 %
19.05.2019 08:46 22,7 C 13,1 C 61 % 82 % 1004,4 hPa 0,0 l/m 0,0 km/h (0 Bft) O-NO 67 10,1 C 13,1 C 1,6 km/h (1 Bft) 100,00 %
19.05.2019 08:45 22,7 C 13,1 C 61 % 82 % 1004,4 hPa 0,0 l/m 0,0 km/h (0 Bft) O-NO 67 10,1 C 13,1 C 1,6 km/h (1 Bft) 100,00 %
19.05.2019 08:44 22,7 C 13,1 C 61 % 82 % 1004,4 hPa 0,0 l/m 1,6 km/h (1 Bft) O-NO 67 10,1 C 13,1 C 1,6 km/h (1 Bft) 100,00 %
19.05.2019 08:43 22,7 C 13,0 C 61 % 82 % 1004,4 hPa 0,0 l/m 1,6 km/h (1 Bft) O-NO 67 10,0 C 13,0 C 3,2 km/h (1 Bft) 100,00 %
19.05.2019 08:42 22,7 C 13,0 C 61 % 81 % 1004,5 hPa 0,0 l/m 1,6 km/h (1 Bft) O-NO 67 9,8 C 13,0 C 3,2 km/h (1 Bft) 100,00 %
19.05.2019 08:41 22,7 C 13,0 C 61 % 82 % 1004,4 hPa 0,0 l/m 1,6 km/h (1 Bft) O-NO 67 10,0 C 13,0 C 1,6 km/h (1 Bft) 100,00 %
19.05.2019 08:40 22,7 C 12,9 C 61 % 82 % 1004,4 hPa 0,0 l/m 0,0 km/h (0 Bft) O-NO 67 9,9 C 12,9 C 1,6 km/h (1 Bft) 95,65 %
19.05.2019 08:39 22,7 C 12,9 C 61 % 81 % 1004,5 hPa 0,0 l/m 1,6 km/h (1 Bft) O-NO 67 9,7 C 12,9 C 1,6 km/h (1 Bft) 100,00 %
19.05.2019 08:38 22,7 C 12,9 C 61 % 82 % 1004,4 hPa 0,0 l/m 1,6 km/h (1 Bft) O-NO 67 9,9 C 12,9 C 1,6 km/h (1 Bft) 100,00 %
19.05.2019 08:37 22,7 C 13,0 C 61 % 82 % 1004,5 hPa 0,0 l/m 1,6 km/h (1 Bft) O-NO 67 10,0 C 13,0 C 4,8 km/h (1 Bft) 100,00 %
19.05.2019 08:36 22,7 C 13,0 C 61 % 82 % 1004,5 hPa 0,0 l/m 3,2 km/h (1 Bft) O-NO 67 10,0 C 13,0 C 4,8 km/h (1 Bft) 100,00 %
19.05.2019 08:35 22,7 C 12,9 C 61 % 82 % 1004,5 hPa 0,0 l/m 0,0 km/h (0 Bft) N 0 9,9 C 12,9 C 0,0 km/h (0 Bft) 95,65 %
19.05.2019 08:34 22,7 C 12,9 C 61 % 82 % 1004,5 hPa 0,0 l/m 1,6 km/h (1 Bft) O-NO 67 9,9 C 12,9 C 3,2 km/h (1 Bft) 100,00 %
19.05.2019 08:33 22,7 C 12,9 C 61 % 82 % 1004,5 hPa 0,0 l/m 3,2 km/h (1 Bft) NO 45 9,9 C 12,9 C 4,8 km/h (1 Bft) 100,00 %
19.05.2019 08:32 22,7 C 12,9 C 61 % 82 % 1004,4 hPa 0,0 l/m 3,2 km/h (1 Bft) NO 45 9,9 C 12,9 C 4,8 km/h (1 Bft) 95,65 %
19.05.2019 08:31 22,7 C 12,9 C 61 % 82 % 1004,4 hPa 0,0 l/m 3,2 km/h (1 Bft) NO 45 9,9 C 12,9 C 4,8 km/h (1 Bft) 100,00 %
19.05.2019 08:30 22,7 C 12,9 C 61 % 82 % 1004,4 hPa 0,0 l/m 1,6 km/h (1 Bft) O 90 9,9 C 12,9 C 3,2 km/h (1 Bft) 91,30 %
19.05.2019 08:29 22,7 C 12,9 C 61 % 82 % 1004,4 hPa 0,0 l/m 3,2 km/h (1 Bft) O 90 9,9 C 12,9 C 4,8 km/h (1 Bft) 95,65 %
19.05.2019 08:28 22,7 C 12,9 C 61 % 82 % 1004,4 hPa 0,0 l/m 3,2 km/h (1 Bft) O-NO 67 9,9 C 12,9 C 4,8 km/h (1 Bft) 100,00 %
19.05.2019 08:27 22,7 C 12,9 C 61 % 81 % 1004,4 hPa 0,0 l/m 3,2 km/h (1 Bft) O-NO 67 9,7 C 12,9 C 6,4 km/h (2 Bft) 95,65 %
19.05.2019 08:26 22,7 C 12,9 C 61 % 81 % 1004,4 hPa 0,0 l/m 3,2 km/h (1 Bft) O-NO 67 9,7 C 12,9 C 4,8 km/h (1 Bft) 100,00 %
19.05.2019 08:25 22,7 C 13,0 C 61 % 81 % 1004,4 hPa 0,0 l/m 3,2 km/h (1 Bft) O-NO 67 9,8 C 13,0 C 4,8 km/h (1 Bft) 95,65 %
19.05.2019 08:24 22,7 C 13,0 C 61 % 81 % 1004,4 hPa 0,0 l/m 3,2 km/h (1 Bft) O-NO 67 9,8 C 13,0 C 4,8 km/h (1 Bft) 100,00 %
19.05.2019 08:23 22,7 C 13,0 C 61 % 81 % 1004,4 hPa 0,0 l/m 3,2 km/h (1 Bft) O-NO 67 9,8 C 13,0 C 4,8 km/h (1 Bft) 100,00 %
19.05.2019 08:22 22,7 C 13,0 C 61 % 81 % 1004,4 hPa 0,0 l/m 1,6 km/h (1 Bft) O-NO 67 9,8 C 13,0 C 3,2 km/h (1 Bft) 95,65 %
19.05.2019 08:21 22,7 C 13,0 C 61 % 81 % 1004,4 hPa 0,0 l/m 1,6 km/h (1 Bft) O 90 9,8 C 13,0 C 1,6 km/h (1 Bft) 100,00 %
19.05.2019 08:20 22,7 C 13,0 C 61 % 81 % 1004,4 hPa 0,0 l/m 1,6 km/h (1 Bft) O 90 9,8 C 13,0 C 1,6 km/h (1 Bft) 100,00 %
19.05.2019 08:19 22,7 C 13,0 C 61 % 82 % 1004,4 hPa 0,0 l/m 3,2 km/h (1 Bft) O 90 10,0 C 13,0 C 3,2 km/h (1 Bft) 100,00 %
19.05.2019 08:18 22,7 C 12,9 C 61 % 82 % 1004,4 hPa 0,0 l/m 0,0 km/h (0 Bft) O-NO 67 9,9 C 12,9 C 1,6 km/h (1 Bft) 100,00 %
19.05.2019 08:17 22,7 C 12,9 C 61 % 82 % 1004,4 hPa 0,0 l/m 0,0 km/h (0 Bft) N 0 9,9 C 12,9 C 0,0 km/h (0 Bft) 95,65 %
19.05.2019 08:16 22,7 C 12,9 C 61 % 82 % 1004,3 hPa 0,0 l/m 0,0 km/h (0 Bft) N 0 9,9 C 12,9 C 0,0 km/h (0 Bft) 100,00 %
19.05.2019 08:15 22,7 C 12,9 C 61 % 82 % 1004,4 hPa 0,0 l/m 0,0 km/h (0 Bft) O-NO 67 9,9 C 12,9 C 1,6 km/h (1 Bft) 95,65 %
19.05.2019 08:14 22,7 C 12,9 C 61 % 83 % 1004,3 hPa 0,0 l/m 1,6 km/h (1 Bft) O-NO 67 10,1 C 12,9 C 1,6 km/h (1 Bft) 100,00 %
19.05.2019 08:13 22,7 C 12,8 C 61 % 82 % 1004,3 hPa 0,0 l/m 0,0 km/h (0 Bft) O-NO 67 9,8 C 12,8 C 1,6 km/h (1 Bft) 100,00 %
19.05.2019 08:12 22,7 C 12,7 C 61 % 83 % 1004,4 hPa 0,0 l/m 0,0 km/h (0 Bft) O-NO 67 9,9 C 12,7 C 1,6 km/h (1 Bft) 100,00 %
19.05.2019 08:11 22,7 C 12,7 C 61 % 83 % 1004,4 hPa 0,0 l/m 0,0 km/h (0 Bft) N 0 9,9 C 12,7 C 0,0 km/h (0 Bft) 100,00 %
19.05.2019 08:10 22,7 C 12,6 C 61 % 82 % 1004,4 hPa 0,0 l/m 0,0 km/h (0 Bft) N 0 9,6 C 12,6 C 0,0 km/h (0 Bft) 100,00 %
19.05.2019 08:09 22,7 C 12,6 C 61 % 82 % 1004,4 hPa 0,0 l/m 0,0 km/h (0 Bft) O-NO 67 9,6 C 12,6 C 1,6 km/h (1 Bft) 95,65 %
19.05.2019 08:08 22,7 C 12,6 C 61 % 82 % 1004,4 hPa 0,0 l/m 1,6 km/h (1 Bft) O-NO 67 9,6 C 12,6 C 1,6 km/h (1 Bft) 95,65 %
19.05.2019 08:07 22,7 C 12,6 C 61 % 82 % 1004,3 hPa 0,0 l/m 1,6 km/h (1 Bft) O-NO 67 9,6 C 12,6 C 3,2 km/h (1 Bft) 100,00 %
19.05.2019 08:06 22,7 C 12,7 C 61 % 82 % 1004,3 hPa 0,0 l/m 3,2 km/h (1 Bft) O-NO 67 9,7 C 12,7 C 4,8 km/h (1 Bft) 95,65 %
19.05.2019 08:05 22,7 C 12,7 C 61 % 83 % 1004,3 hPa 0,0 l/m 1,6 km/h (1 Bft) O-NO 67 9,9 C 12,7 C 4,8 km/h (1 Bft) 91,30 %
19.05.2019 08:04 22,7 C 12,7 C 61 % 83 % 1004,3 hPa 0,0 l/m 3,2 km/h (1 Bft) O-NO 67 9,9 C 12,7 C 4,8 km/h (1 Bft) 100,00 %
19.05.2019 08:03 22,7 C 12,7 C 61 % 83 % 1004,3 hPa 0,0 l/m 0,0 km/h (0 Bft) O-NO 67 9,9 C 12,7 C 3,2 km/h (1 Bft) 91,30 %
19.05.2019 08:02 22,7 C 12,6 C 61 % 83 % 1004,3 hPa 0,0 l/m 0,0 km/h (0 Bft) N 0 9,8 C 12,6 C 0,0 km/h (0 Bft) 100,00 %
19.05.2019 08:01 22,7 C 12,6 C 61 % 82 % 1004,3 hPa 0,0 l/m 0,0 km/h (0 Bft) O-NO 67 9,6 C 12,6 C 3,2 km/h (1 Bft) 100,00 %
19.05.2019 08:00 22,7 C 12,7 C 61 % 82 % 1004,3 hPa 0,0 l/m 3,2 km/h (1 Bft) O-NO 67 9,7 C 12,7 C 3,2 km/h (1 Bft) 100,00 %
19.05.2019 07:59 22,7 C 12,7 C 61 % 84 % 1004,2 hPa 0,0 l/m 3,2 km/h (1 Bft) O-NO 67 10,1 C 12,7 C 3,2 km/h (1 Bft) 100,00 %
19.05.2019 07:58 22,7 C 12,7 C 61 % 85 % 1004,3 hPa 0,0 l/m 1,6 km/h (1 Bft) SW 225 10,2 C 12,7 C 3,2 km/h (1 Bft) 95,65 %
19.05.2019 07:57 22,7 C 12,6 C 61 % 86 % 1004,3 hPa 0,0 l/m 0,0 km/h (0 Bft) SW 225 10,3 C 12,6 C 1,6 km/h (1 Bft) 100,00 %
19.05.2019 07:56 22,7 C 12,4 C 61 % 86 % 1004,2 hPa 0,0 l/m 0,0 km/h (0 Bft) N 0 10,1 C 12,4 C 0,0 km/h (0 Bft) 86,96 %
19.05.2019 07:55 22,7 C 12,2 C 61 % 86 % 1004,3 hPa 0,0 l/m 0,0 km/h (0 Bft) N 0 9,9 C 12,2 C 0,0 km/h (0 Bft) 100,00 %
19.05.2019 07:54 22,7 C 12,1 C 61 % 86 % 1004,2 hPa 0,0 l/m 0,0 km/h (0 Bft) N 0 9,8 C 12,1 C 0,0 km/h (0 Bft) 91,30 %
19.05.2019 07:53 22,7 C 11,9 C 61 % 86 % 1004,2 hPa 0,0 l/m 0,0 km/h (0 Bft) N 0 9,6 C 11,9 C 0,0 km/h (0 Bft) 91,30 %
19.05.2019 07:52 22,7 C 11,8 C 61 % 86 % 1004,2 hPa 0,0 l/m 0,0 km/h (0 Bft) N 0 9,5 C 11,8 C 0,0 km/h (0 Bft) 100,00 %
19.05.2019 07:51 22,7 C 11,8 C 61 % 86 % 1004,3 hPa 0,0 l/m 0,0 km/h (0 Bft) N 0 9,5 C 11,8 C 0,0 km/h (0 Bft) 91,30 %
19.05.2019 07:50 22,7 C 11,7 C 61 % 86 % 1004,2 hPa 0,0 l/m 0,0 km/h (0 Bft) N 0 9,4 C 11,7 C 0,0 km/h (0 Bft) 100,00 %
19.05.2019 07:49 22,7 C 11,6 C 61 % 86 % 1004,2 hPa 0,0 l/m 0,0 km/h (0 Bft) N 0 9,3 C 11,6 C 0,0 km/h (0 Bft) 95,65 %
19.05.2019 07:48 22,7 C 11,6 C 61 % 86 % 1004,2 hPa 0,0 l/m 0,0 km/h (0 Bft) N 0 9,3 C 11,6 C 0,0 km/h (0 Bft) 100,00 %
19.05.2019 07:47 22,7 C 11,6 C 61 % 87 % 1004,3 hPa 0,0 l/m 0,0 km/h (0 Bft) N 0 9,5 C 11,6 C 0,0 km/h (0 Bft) 100,00 %
19.05.2019 07:46 22,7 C 11,4 C 61 % 87 % 1004,2 hPa 0,0 l/m 0,0 km/h (0 Bft) SW 225 9,3 C 11,4 C 1,6 km/h (1 Bft) 100,00 %
19.05.2019 07:45 22,7 C 11,4 C 61 % 87 % 1004,3 hPa 0,0 l/m 0,0 km/h (0 Bft) N 0 9,3 C 11,4 C 0,0 km/h (0 Bft) 100,00 %
19.05.2019 07:44 22,7 C 11,3 C 61 % 87 % 1004,3 hPa 0,0 l/m 0,0 km/h (0 Bft) N 0 9,2 C 11,3 C 0,0 km/h (0 Bft) 100,00 %
19.05.2019 07:43 22,7 C 11,3 C 61 % 87 % 1004,2 hPa 0,0 l/m 0,0 km/h (0 Bft) SW 225 9,2 C 11,3 C 1,6 km/h (1 Bft) 100,00 %
19.05.2019 07:42 22,7 C 11,3 C 61 % 88 % 1004,2 hPa 0,0 l/m 0,0 km/h (0 Bft) SW 225 9,4 C 11,3 C 1,6 km/h (1 Bft) 100,00 %
19.05.2019 07:41 22,7 C 11,2 C 61 % 89 % 1004,2 hPa 0,0 l/m 0,0 km/h (0 Bft) SW 225 9,5 C 11,2 C 1,6 km/h (1 Bft) 100,00 %
19.05.2019 07:40 22,7 C 11,1 C 61 % 89 % 1004,3 hPa 0,0 l/m 0,0 km/h (0 Bft) N 0 9,4 C 11,1 C 0,0 km/h (0 Bft) 100,00 %
19.05.2019 07:39 22,7 C 10,9 C 61 % 90 % 1004,3 hPa 0,0 l/m 0,0 km/h (0 Bft) N 0 9,3 C 10,9 C 0,0 km/h (0 Bft) 100,00 %
19.05.2019 07:38 22,7 C 10,8 C 61 % 90 % 1004,3 hPa 0,0 l/m 0,0 km/h (0 Bft) N 0 9,2 C 10,8 C 0,0 km/h (0 Bft) 100,00 %
19.05.2019 07:37 22,7 C 10,6 C 61 % 90 % 1004,3 hPa 0,0 l/m 0,0 km/h (0 Bft) N 0 9,0 C 10,6 C 0,0 km/h (0 Bft) 100,00 %
19.05.2019 07:36 22,7 C 10,4 C 61 % 89 % 1004,3 hPa 0,0 l/m 0,0 km/h (0 Bft) N 0 8,7 C 10,4 C 0,0 km/h (0 Bft) 100,00 %
19.05.2019 07:35 22,7 C 10,3 C 61 % 90 % 1004,3 hPa 0,0 l/m 0,0 km/h (0 Bft) N 0 8,7 C 10,3 C 0,0 km/h (0 Bft) 91,30 %
19.05.2019 07:34 22,7 C 10,3 C 61 % 90 % 1004,3 hPa 0,0 l/m 0,0 km/h (0 Bft) N 0 8,7 C 10,3 C 0,0 km/h (0 Bft) 100,00 %
19.05.2019 07:33 22,7 C 10,2 C 61 % 90 % 1004,3 hPa 0,0 l/m 0,0 km/h (0 Bft) N 0 8,6 C 10,2 C 0,0 km/h (0 Bft) 100,00 %
19.05.2019 07:32 22,7 C 10,1 C 61 % 90 % 1004,3 hPa 0,0 l/m 0,0 km/h (0 Bft) N 0 8,5 C 10,1 C 0,0 km/h (0 Bft) 100,00 %
19.05.2019 07:31 22,7 C 10,1 C 61 % 90 % 1004,4 hPa 0,0 l/m 0,0 km/h (0 Bft) N 0 8,5 C 10,1 C 0,0 km/h (0 Bft) 100,00 %
19.05.2019 07:30 22,7 C 10,0 C 61 % 90 % 1004,3 hPa 0,0 l/m 0,0 km/h (0 Bft) N 0 8,4 C 10,0 C 0,0 km/h (0 Bft) 95,65 %
19.05.2019 07:29 22,7 C 10,0 C 61 % 90 % 1004,3 hPa 0,0 l/m 1,6 km/h (1 Bft) SW 225 8,4 C 10,0 C 3,2 km/h (1 Bft) 100,00 %
19.05.2019 07:28 22,7 C 9,9 C 61 % 90 % 1004,4 hPa 0,0 l/m 0,0 km/h (0 Bft) N 0 8,3 C 9,9 C 0,0 km/h (0 Bft) 100,00 %
19.05.2019 07:27 22,7 C 9,9 C 61 % 90 % 1004,3 hPa 0,0 l/m 0,0 km/h (0 Bft) N 0 8,3 C 9,9 C 0,0 km/h (0 Bft) 100,00 %
19.05.2019 07:26 22,7 C 9,9 C 61 % 90 % 1004,4 hPa 0,0 l/m 0,0 km/h (0 Bft) SW 225 8,3 C 9,9 C 1,6 km/h (1 Bft) 100,00 %
19.05.2019 07:25 22,7 C 9,9 C 61 % 90 % 1004,4 hPa 0,0 l/m 1,6 km/h (1 Bft) SW 225 8,3 C 9,9 C 3,2 km/h (1 Bft) 100,00 %
19.05.2019 07:24 22,7 C 9,9 C 61 % 91 % 1004,4 hPa 0,0 l/m 1,6 km/h (1 Bft) SW 225 8,5 C 9,9 C 3,2 km/h (1 Bft) 100,00 %
19.05.2019 07:23 22,7 C 9,8 C 61 % 92 % 1004,5 hPa 0,0 l/m 1,6 km/h (1 Bft) SW 225 8,6 C 9,8 C 3,2 km/h (1 Bft) 100,00 %
19.05.2019 07:22 22,7 C 9,8 C 61 % 93 % 1004,5 hPa 0,0 l/m 0,0 km/h (0 Bft) N 0 8,7 C 9,8 C 0,0 km/h (0 Bft) 100,00 %
19.05.2019 07:21 22,7 C 9,6 C 61 % 92 % 1004,5 hPa 0,0 l/m 0,0 km/h (0 Bft) N 0 8,4 C 9,6 C 0,0 km/h (0 Bft) 100,00 %
19.05.2019 07:20 22,7 C 9,4 C 61 % 92 % 1004,5 hPa 0,0 l/m 0,0 km/h (0 Bft) SW 225 8,2 C 9,4 C 1,6 km/h (1 Bft) 100,00 %
19.05.2019 07:19 22,7 C 9,3 C 61 % 92 % 1004,5 hPa 0,0 l/m 0,0 km/h (0 Bft) SW 225 8,1 C 9,3 C 1,6 km/h (1 Bft) 100,00 %
19.05.2019 07:18 22,7 C 9,3 C 61 % 92 % 1004,5 hPa 0,0 l/m 0,0 km/h (0 Bft) N 0 8,1 C 9,3 C 0,0 km/h (0 Bft) 91,30 %
19.05.2019 07:17 22,7 C 9,2 C 61 % 92 % 1004,5 hPa 0,0 l/m 0,0 km/h (0 Bft) SW 225 8,0 C 9,2 C 1,6 km/h (1 Bft) 95,65 %
19.05.2019 07:16 22,7 C 9,2 C 61 % 92 % 1004,5 hPa 0,0 l/m 1,6 km/h (1 Bft) SW 225 8,0 C 9,2 C 3,2 km/h (1 Bft) 100,00 %
19.05.2019 07:15 22,7 C 9,1 C 61 % 92 % 1004,4 hPa 0,0 l/m 0,0 km/h (0 Bft) N 0 7,9 C 9,1 C 0,0 km/h (0 Bft) 91,30 %
19.05.2019 07:14 22,7 C 9,1 C 61 % 92 % 1004,5 hPa 0,0 l/m 0,0 km/h (0 Bft) SW 225 7,9 C 9,1 C 1,6 km/h (1 Bft) 100,00 %
19.05.2019 07:13 22,7 C 9,0 C 61 % 93 % 1004,4 hPa 0,0 l/m 0,0 km/h (0 Bft) SW 225 7,9 C 9,0 C 1,6 km/h (1 Bft) 100,00 %
19.05.2019 07:12 22,7 C 9,0 C 61 % 93 % 1004,4 hPa 0,0 l/m 0,0 km/h (0 Bft) N 0 7,9 C 9,0 C 0,0 km/h (0 Bft) 100,00 %
19.05.2019 07:11 22,7 C 8,9 C 61 % 93 % 1004,4 hPa 0,0 l/m 1,6 km/h (1 Bft) SW 225 7,8 C 8,9 C 1,6 km/h (1 Bft) 100,00 %
19.05.2019 07:10 22,7 C 8,9 C 61 % 93 % 1004,4 hPa 0,0 l/m 0,0 km/h (0 Bft) SW 225 7,8 C 8,9 C 1,6 km/h (1 Bft) 100,00 %
19.05.2019 07:09 22,7 C 8,9 C 61 % 94 % 1004,4 hPa 0,0 l/m 0,0 km/h (0 Bft) SW 225 8,0 C 8,9 C 1,6 km/h (1 Bft) 100,00 %
19.05.2019 07:08 22,7 C 8,8 C 61 % 94 % 1004,4 hPa 0,0 l/m 0,0 km/h (0 Bft) SW 225 7,9 C 8,8 C 1,6 km/h (1 Bft) 100,00 %
19.05.2019 07:07 22,7 C 8,7 C 61 % 94 % 1004,4 hPa 0,0 l/m 0,0 km/h (0 Bft) N 0 7,8 C 8,7 C 0,0 km/h (0 Bft) 100,00 %
19.05.2019 07:06 22,7 C 8,7 C 61 % 94 % 1004,5 hPa 0,0 l/m 0,0 km/h (0 Bft) SW 225 7,8 C 8,7 C 1,6 km/h (1 Bft) 100,00 %
19.05.2019 07:05 22,7 C 8,6 C 61 % 94 % 1004,4 hPa 0,0 l/m 1,6 km/h (1 Bft) SW 225 7,7 C 8,6 C 3,2 km/h (1 Bft) 95,65 %
19.05.2019 07:04 22,7 C 8,6 C 61 % 94 % 1004,4 hPa 0,0 l/m 0,0 km/h (0 Bft) SW 225 7,7 C 8,6 C 1,6 km/h (1 Bft) 100,00 %
19.05.2019 07:03 22,7 C 8,4 C 61 % 94 % 1004,4 hPa 0,0 l/m 0,0 km/h (0 Bft) N 0 7,5 C 8,4 C 0,0 km/h (0 Bft) 100,00 %
19.05.2019 07:02 22,7 C 8,4 C 61 % 94 % 1004,4 hPa 0,0 l/m 0,0 km/h (0 Bft) SW 225 7,5 C 8,4 C 1,6 km/h (1 Bft) 100,00 %
19.05.2019 07:01 22,7 C 8,4 C 61 % 94 % 1004,4 hPa 0,0 l/m 0,0 km/h (0 Bft) SW 225 7,5 C 8,4 C 1,6 km/h (1 Bft) 95,65 %
19.05.2019 07:00 22,7 C 8,3 C 61 % 94 % 1004,3 hPa 0,0 l/m 0,0 km/h (0 Bft) SW 225 7,4 C 8,3 C 1,6 km/h (1 Bft) 100,00 %
19.05.2019 06:59 22,7 C 8,3 C 61 % 94 % 1004,3 hPa 0,0 l/m 0,0 km/h (0 Bft) SW 225 7,4 C 8,3 C 1,6 km/h (1 Bft) 91,30 %
19.05.2019 06:58 22,7 C 8,3 C 61 % 94 % 1004,4 hPa 0,0 l/m 1,6 km/h (1 Bft) SW 225 7,4 C 8,3 C 1,6 km/h (1 Bft) 95,65 %
19.05.2019 06:57 22,7 C 8,3 C 61 % 95 % 1004,4 hPa 0,0 l/m 0,0 km/h (0 Bft) N 0 7,5 C 8,3 C 0,0 km/h (0 Bft) 100,00 %
19.05.2019 06:56 22,7 C 8,2 C 61 % 95 % 1004,4 hPa 0,0 l/m 0,0 km/h (0 Bft) SW 225 7,4 C 8,2 C 1,6 km/h (1 Bft) 100,00 %
19.05.2019 06:55 22,7 C 8,2 C 61 % 95 % 1004,4 hPa 0,0 l/m 0,0 km/h (0 Bft) N 0 7,4 C 8,2 C 0,0 km/h (0 Bft) 100,00 %
19.05.2019 06:54 22,7 C 8,2 C 61 % 95 % 1004,3 hPa 0,0 l/m 0,0 km/h (0 Bft) N 0 7,4 C 8,2 C 0,0 km/h (0 Bft) 100,00 %
19.05.2019 06:53 22,7 C 8,1 C 61 % 95 % 1004,4 hPa 0,0 l/m 0,0 km/h (0 Bft) N 0 7,3 C 8,1 C 0,0 km/h (0 Bft) 100,00 %
19.05.2019 06:52 22,7 C 7,9 C 61 % 95 % 1004,3 hPa 0,0 l/m 0,0 km/h (0 Bft) N 0 7,1 C 7,9 C 0,0 km/h (0 Bft) 100,00 %
19.05.2019 06:51 22,7 C 7,8 C 61 % 95 % 1004,4 hPa 0,0 l/m 0,0 km/h (0 Bft) N 0 7,0 C 7,8 C 0,0 km/h (0 Bft) 86,96 %
19.05.2019 06:50 22,7 C 7,8 C 61 % 95 % 1004,3 hPa 0,0 l/m 0,0 km/h (0 Bft) N 0 7,0 C 7,8 C 0,0 km/h (0 Bft) 100,00 %
19.05.2019 06:49 22,7 C 7,7 C 61 % 95 % 1004,3 hPa 0,0 l/m 0,0 km/h (0 Bft) SW 225 7,0 C 7,7 C 1,6 km/h (1 Bft) 100,00 %
19.05.2019 06:48 22,7 C 7,7 C 61 % 95 % 1004,3 hPa 0,0 l/m 0,0 km/h (0 Bft) SW 225 7,0 C 7,7 C 1,6 km/h (1 Bft) 100,00 %
19.05.2019 06:47 22,7 C 7,7 C 61 % 95 % 1004,3 hPa 0,0 l/m 0,0 km/h (0 Bft) SW 225 7,0 C 7,7 C 1,6 km/h (1 Bft) 100,00 %
19.05.2019 06:46 22,7 C 7,7 C 61 % 95 % 1004,3 hPa 0,0 l/m 0,0 km/h (0 Bft) SW 225 7,0 C 7,7 C 1,6 km/h (1 Bft) 95,65 %
19.05.2019 06:45 22,7 C 7,7 C 61 % 95 % 1004,4 hPa 0,0 l/m 1,6 km/h (1 Bft) SW 225 7,0 C 7,7 C 1,6 km/h (1 Bft) 100,00 %
19.05.2019 06:44 22,7 C 7,7 C 61 % 96 % 1004,4 hPa 0,0 l/m 0,0 km/h (0 Bft) N 0 7,1 C 7,7 C 0,0 km/h (0 Bft) 100,00 %
19.05.2019 06:43 22,7 C 7,6 C 61 % 96 % 1004,4 hPa 0,0 l/m 0,0 km/h (0 Bft) SW 225 7,0 C 7,6 C 1,6 km/h (1 Bft) 100,00 %
19.05.2019 06:42 22,7 C 7,5 C 61 % 96 % 1004,4 hPa 0,0 l/m 0,0 km/h (0 Bft) SW 225 6,9 C 7,5 C 1,6 km/h (1 Bft) 100,00 %
19.05.2019 06:41 22,7 C 7,4 C 61 % 96 % 1004,3 hPa 0,0 l/m 0,0 km/h (0 Bft) SW 225 6,8 C 7,4 C 1,6 km/h (1 Bft) 100,00 %
19.05.2019 06:40 22,7 C 7,3 C 61 % 96 % 1004,3 hPa 0,0 l/m 0,0 km/h (0 Bft) N 0 6,7 C 7,3 C 0,0 km/h (0 Bft) 100,00 %
19.05.2019 06:39 22,7 C 7,3 C 61 % 96 % 1004,3 hPa 0,0 l/m 0,0 km/h (0 Bft) SW 225 6,7 C 7,3 C 1,6 km/h (1 Bft) 95,65 %
19.05.2019 06:38 22,7 C 7,2 C 61 % 96 % 1004,2 hPa 0,0 l/m 0,0 km/h (0 Bft) N 0 6,6 C 7,2 C 0,0 km/h (0 Bft) 100,00 %
19.05.2019 06:37 22,7 C 7,1 C 61 % 96 % 1004,3 hPa 0,0 l/m 0,0 km/h (0 Bft) N 0 6,5 C 7,1 C 0,0 km/h (0 Bft) 91,30 %
19.05.2019 06:36 22,7 C 6,9 C 61 % 96 % 1004,2 hPa 0,0 l/m 0,0 km/h (0 Bft) N 0 6,3 C 6,9 C 0,0 km/h (0 Bft) 100,00 %
19.05.2019 06:35 22,7 C 6,8 C 61 % 96 % 1004,3 hPa 0,0 l/m 0,0 km/h (0 Bft) N 0 6,2 C 6,8 C 0,0 km/h (0 Bft) 95,65 %
19.05.2019 06:34 22,7 C 6,7 C 61 % 96 % 1004,3 hPa 0,0 l/m 0,0 km/h (0 Bft) N 0 6,1 C 6,7 C 0,0 km/h (0 Bft) 100,00 %
19.05.2019 06:33 22,7 C 6,6 C 61 % 96 % 1004,3 hPa 0,0 l/m 0,0 km/h (0 Bft) N 0 6,0 C 6,6 C 0,0 km/h (0 Bft) 100,00 %
19.05.2019 06:32 22,7 C 6,6 C 61 % 96 % 1004,4 hPa 0,0 l/m 0,0 km/h (0 Bft) N 0 6,0 C 6,6 C 0,0 km/h (0 Bft) 100,00 %
19.05.2019 06:31 22,7 C 6,6 C 61 % 96 % 1004,3 hPa 0,0 l/m 0,0 km/h (0 Bft) N 0 6,0 C 6,6 C 0,0 km/h (0 Bft) 100,00 %
19.05.2019 06:30 22,7 C 6,5 C 61 % 96 % 1004,4 hPa 0,0 l/m 0,0 km/h (0 Bft) N 0 5,9 C 6,5 C 0,0 km/h (0 Bft) 100,00 %
19.05.2019 06:29 22,7 C 6,4 C 61 % 96 % 1004,4 hPa 0,0 l/m 0,0 km/h (0 Bft) N 0 5,8 C 6,4 C 0,0 km/h (0 Bft) 95,65 %
19.05.2019 06:28 22,7 C 6,3 C 61 % 96 % 1004,5 hPa 0,0 l/m 0,0 km/h (0 Bft) N 0 5,7 C 6,3 C 0,0 km/h (0 Bft) 100,00 %
19.05.2019 06:27 22,7 C 6,2 C 61 % 96 % 1004,4 hPa 0,0 l/m 0,0 km/h (0 Bft) N 0 5,6 C 6,2 C 0,0 km/h (0 Bft) 100,00 %
19.05.2019 06:26 22,7 C 6,1 C 61 % 96 % 1004,4 hPa 0,0 l/m 0,0 km/h (0 Bft) N 0 5,5 C 6,1 C 0,0 km/h (0 Bft) 100,00 %
19.05.2019 06:25 22,7 C 6,1 C 61 % 96 % 1004,3 hPa 0,0 l/m 0,0 km/h (0 Bft) SW 225 5,5 C 6,1 C 1,6 km/h (1 Bft) 100,00 %
19.05.2019 06:24 22,7 C 6,0 C 61 % 96 % 1004,4 hPa 0,0 l/m 0,0 km/h (0 Bft) N 0 5,4 C 6,0 C 0,0 km/h (0 Bft) 100,00 %
19.05.2019 06:23 22,7 C 5,9 C 61 % 95 % 1004,4 hPa 0,0 l/m 0,0 km/h (0 Bft) N 0 5,2 C 5,9 C 0,0 km/h (0 Bft) 100,00 %
19.05.2019 06:22 22,7 C 5,9 C 61 % 95 % 1004,3 hPa 0,0 l/m 0,0 km/h (0 Bft) N 0 5,2 C 5,9 C 0,0 km/h (0 Bft) 100,00 %
19.05.2019 06:21 22,7 C 5,9 C 61 % 95 % 1004,3 hPa 0,0 l/m 0,0 km/h (0 Bft) N 0 5,2 C 5,9 C 0,0 km/h (0 Bft) 100,00 %
19.05.2019 06:20 22,7 C 5,8 C 61 % 95 % 1004,3 hPa 0,0 l/m 0,0 km/h (0 Bft) SW 225 5,1 C 5,8 C 1,6 km/h (1 Bft) 100,00 %
19.05.2019 06:19 22,7 C 5,8 C 61 % 95 % 1004,3 hPa 0,0 l/m 0,0 km/h (0 Bft) SW 225 5,1 C 5,8 C 3,2 km/h (1 Bft) 100,00 %
19.05.2019 06:18 22,7 C 5,8 C 61 % 95 % 1004,3 hPa 0,0 l/m 1,6 km/h (1 Bft) SW 225 5,1 C 5,8 C 3,2 km/h (1 Bft) 95,65 %
19.05.2019 06:17 22,7 C 5,8 C 61 % 95 % 1004,3 hPa 0,0 l/m 0,0 km/h (0 Bft) SW 225 5,1 C 5,8 C 1,6 km/h (1 Bft) 100,00 %
19.05.2019 06:16 22,7 C 5,8 C 61 % 96 % 1004,3 hPa 0,0 l/m 0,0 km/h (0 Bft) SW 225 5,2 C 5,8 C 1,6 km/h (1 Bft) 100,00 %
19.05.2019 06:15 22,7 C 5,8 C 61 % 96 % 1004,2 hPa 0,0 l/m 0,0 km/h (0 Bft) SW 225 5,2 C 5,8 C 1,6 km/h (1 Bft) 100,00 %
19.05.2019 06:14 22,7 C 5,8 C 61 % 96 % 1004,3 hPa 0,0 l/m 0,0 km/h (0 Bft) SW 225 5,2 C 5,8 C 1,6 km/h (1 Bft) 100,00 %
19.05.2019 06:13 22,7 C 5,8 C 61 % 96 % 1004,3 hPa 0,0 l/m 1,6 km/h (1 Bft) SW 225 5,2 C 5,8 C 1,6 km/h (1 Bft) 100,00 %
19.05.2019 06:12 22,7 C 5,8 C 61 % 96 % 1004,3 hPa 0,0 l/m 0,0 km/h (0 Bft) SW 225 5,2 C 5,8 C 1,6 km/h (1 Bft) 100,00 %
19.05.2019 06:11 22,7 C 5,8 C 61 % 96 % 1004,2 hPa 0,0 l/m 0,0 km/h (0 Bft) SW 225 5,2 C 5,8 C 1,6 km/h (1 Bft) 100,00 %
19.05.2019 06:10 22,7 C 5,8 C 61 % 96 % 1004,2 hPa 0,0 l/m 0,0 km/h (0 Bft) SW 225 5,2 C 5,8 C 1,6 km/h (1 Bft) 100,00 %
19.05.2019 06:09 22,7 C 5,8 C 61 % 96 % 1004,3 hPa 0,0 l/m 0,0 km/h (0 Bft) N 0 5,2 C 5,8 C 0,0 km/h (0 Bft) 100,00 %
19.05.2019 06:08 22,7 C 5,8 C 61 % 96 % 1004,3 hPa 0,0 l/m 0,0 km/h (0 Bft) N 0 5,2 C 5,8 C 0,0 km/h (0 Bft) 95,65 %
19.05.2019 06:07 22,7 C 5,8 C 61 % 96 % 1004,2 hPa 0,0 l/m 0,0 km/h (0 Bft) N 0 5,2 C 5,8 C 0,0 km/h (0 Bft) 100,00 %
19.05.2019 06:06 22,7 C 5,8 C 61 % 95 % 1004,2 hPa 0,0 l/m 0,0 km/h (0 Bft) N 0 5,1 C 5,8 C 0,0 km/h (0 Bft) 100,00 %
19.05.2019 06:05 22,7 C 5,8 C 61 % 95 % 1004,2 hPa 0,0 l/m 0,0 km/h (0 Bft) N 0 5,1 C 5,8 C 0,0 km/h (0 Bft) 100,00 %
19.05.2019 06:04 22,7 C 5,7 C 61 % 95 % 1004,2 hPa 0,0 l/m 0,0 km/h (0 Bft) N 0 5,0 C 5,7 C 0,0 km/h (0 Bft) 100,00 %
19.05.2019 06:03 22,7 C 5,7 C 61 % 95 % 1004,2 hPa 0,0 l/m 0,0 km/h (0 Bft) N 0 5,0 C 5,7 C 0,0 km/h (0 Bft) 91,30 %
19.05.2019 06:02 22,7 C 5,8 C 61 % 95 % 1004,2 hPa 0,0 l/m 0,0 km/h (0 Bft) N 0 5,1 C 5,8 C 0,0 km/h (0 Bft) 100,00 %
19.05.2019 06:01 22,7 C 5,8 C 61 % 95 % 1004,1 hPa 0,0 l/m 0,0 km/h (0 Bft) N 0 5,1 C 5,8 C 0,0 km/h (0 Bft) 100,00 %
19.05.2019 06:00 22,7 C 5,8 C 61 % 95 % 1004,2 hPa 0,0 l/m 0,0 km/h (0 Bft) N 0 5,1 C 5,8 C 0,0 km/h (0 Bft) 100,00 %
19.05.2019 05:59 22,7 C 5,8 C 61 % 95 % 1004,2 hPa 0,0 l/m 0,0 km/h (0 Bft) N 0 5,1 C 5,8 C 0,0 km/h (0 Bft) 100,00 %
19.05.2019 05:58 22,7 C 5,8 C 61 % 95 % 1004,2 hPa 0,0 l/m 0,0 km/h (0 Bft) N 0 5,1 C 5,8 C 0,0 km/h (0 Bft) 91,30 %
19.05.2019 05:57 22,7 C 5,8 C 61 % 95 % 1004,2 hPa 0,0 l/m 0,0 km/h (0 Bft) N 0 5,1 C 5,8 C 0,0 km/h (0 Bft) 100,00 %
19.05.2019 05:56 22,7 C 5,8 C 61 % 95 % 1004,2 hPa 0,0 l/m 0,0 km/h (0 Bft) N 0 5,1 C 5,8 C 0,0 km/h (0 Bft) 95,65 %
19.05.2019 05:55 22,7 C 5,8 C 61 % 95 % 1004,2 hPa 0,0 l/m 0,0 km/h (0 Bft) N 0 5,1 C 5,8 C 0,0 km/h (0 Bft) 100,00 %
19.05.2019 05:54 22,7 C 5,8 C 61 % 95 % 1004,2 hPa 0,0 l/m 0,0 km/h (0 Bft) SW 225 5,1 C 5,8 C 1,6 km/h (1 Bft) 100,00 %
19.05.2019 05:53 22,7 C 5,8 C 61 % 95 % 1004,2 hPa 0,0 l/m 0,0 km/h (0 Bft) N 0 5,1 C 5,8 C 0,0 km/h (0 Bft) 100,00 %
19.05.2019 05:52 22,7 C 5,8 C 61 % 95 % 1004,2 hPa 0,0 l/m 0,0 km/h (0 Bft) N 0 5,1 C 5,8 C 0,0 km/h (0 Bft) 100,00 %
19.05.2019 05:51 22,7 C 5,8 C 61 % 95 % 1004,2 hPa 0,0 l/m 0,0 km/h (0 Bft) N 0 5,1 C 5,8 C 0,0 km/h (0 Bft) 100,00 %
19.05.2019 05:50 22,7 C 5,8 C 61 % 96 % 1004,2 hPa 0,0 l/m 0,0 km/h (0 Bft) SW 225 5,2 C 5,8 C 1,6 km/h (1 Bft) 100,00 %
19.05.2019 05:49 22,7 C 5,8 C 61 % 96 % 1004,2 hPa 0,0 l/m 0,0 km/h (0 Bft) N 0 5,2 C 5,8 C 0,0 km/h (0 Bft) 100,00 %
19.05.2019 05:48 22,7 C 5,8 C 61 % 96 % 1004,2 hPa 0,0 l/m 0,0 km/h (0 Bft) N 0 5,2 C 5,8 C 0,0 km/h (0 Bft) 100,00 %
19.05.2019 05:47 22,7 C 5,8 C 61 % 96 % 1004,3 hPa 0,0 l/m 0,0 km/h (0 Bft) N 0 5,2 C 5,8 C 0,0 km/h (0 Bft) 100,00 %
19.05.2019 05:46 22,7 C 5,8 C 61 % 96 % 1004,3 hPa 0,0 l/m 0,0 km/h (0 Bft) SW 225 5,2 C 5,8 C 1,6 km/h (1 Bft) 100,00 %
19.05.2019 05:45 22,7 C 5,8 C 61 % 95 % 1004,2 hPa 0,0 l/m 0,0 km/h (0 Bft) N 0 5,1 C 5,8 C 0,0 km/h (0 Bft) 100,00 %
19.05.2019 05:44 22,7 C 5,8 C 61 % 95 % 1004,2 hPa 0,0 l/m 0,0 km/h (0 Bft) N 0 5,1 C 5,8 C 0,0 km/h (0 Bft) 100,00 %
19.05.2019 05:43 22,7 C 5,8 C 61 % 95 % 1004,2 hPa 0,0 l/m 0,0 km/h (0 Bft) N 0 5,1 C 5,8 C 0,0 km/h (0 Bft) 100,00 %
19.05.2019 05:42 22,7 C 5,8 C 61 % 95 % 1004,2 hPa 0,0 l/m 0,0 km/h (0 Bft) N 0 5,1 C 5,8 C 0,0 km/h (0 Bft) 95,65 %
19.05.2019 05:41 22,7 C 5,8 C 61 % 95 % 1004,2 hPa 0,0 l/m 0,0 km/h (0 Bft) N 0 5,1 C 5,8 C 0,0 km/h (0 Bft) 100,00 %
19.05.2019 05:40 22,7 C 5,8 C 61 % 95 % 1004,3 hPa 0,0 l/m 0,0 km/h (0 Bft) N 0 5,1 C 5,8 C 0,0 km/h (0 Bft) 100,00 %
19.05.2019 05:39 22,7 C 5,8 C 61 % 95 % 1004,3 hPa 0,0 l/m 0,0 km/h (0 Bft) N 0 5,1 C 5,8 C 0,0 km/h (0 Bft) 95,65 %
19.05.2019 05:38 22,7 C 5,8 C 61 % 95 % 1004,2 hPa 0,0 l/m 0,0 km/h (0 Bft) N 0 5,1 C 5,8 C 0,0 km/h (0 Bft) 100,00 %
19.05.2019 05:37 22,7 C 5,8 C 61 % 95 % 1004,2 hPa 0,0 l/m 0,0 km/h (0 Bft) N 0 5,1 C 5,8 C 0,0 km/h (0 Bft) 95,65 %
19.05.2019 05:36 22,7 C 5,8 C 61 % 95 % 1004,2 hPa 0,0 l/m 0,0 km/h (0 Bft) N 0 5,1 C 5,8 C 0,0 km/h (0 Bft) 100,00 %
19.05.2019 05:35 22,7 C 5,8 C 61 % 95 % 1004,2 hPa 0,0 l/m 0,0 km/h (0 Bft) N 0 5,1 C 5,8 C 0,0 km/h (0 Bft) 100,00 %
19.05.2019 05:34 22,7 C 5,8 C 61 % 95 % 1004,1 hPa 0,0 l/m 0,0 km/h (0 Bft) SW 225 5,1 C 5,8 C 1,6 km/h (1 Bft) 100,00 %
19.05.2019 05:33 22,7 C 5,8 C 61 % 95 % 1004,1 hPa 0,0 l/m 0,0 km/h (0 Bft) N 0 5,1 C 5,8 C 0,0 km/h (0 Bft) 100,00 %
19.05.2019 05:32 22,7 C 5,8 C 61 % 95 % 1004,1 hPa 0,0 l/m 0,0 km/h (0 Bft) N 0 5,1 C 5,8 C 0,0 km/h (0 Bft) 100,00 %
19.05.2019 05:31 22,7 C 5,8 C 61 % 95 % 1004,0 hPa 0,0 l/m 0,0 km/h (0 Bft) N 0 5,1 C 5,8 C 0,0 km/h (0 Bft) 100,00 %
19.05.2019 05:30 22,7 C 5,8 C 61 % 95 % 1004,0 hPa 0,0 l/m 0,0 km/h (0 Bft) N 0 5,1 C 5,8 C 0,0 km/h (0 Bft) 95,65 %
19.05.2019 05:29 22,7 C 5,8 C 61 % 95 % 1004,1 hPa 0,0 l/m 0,0 km/h (0 Bft) N 0 5,1 C 5,8 C 0,0 km/h (0 Bft) 100,00 %
19.05.2019 05:28 22,7 C 5,8 C 61 % 95 % 1004,0 hPa 0,0 l/m 0,0 km/h (0 Bft) N 0 5,1 C 5,8 C 0,0 km/h (0 Bft) 100,00 %
19.05.2019 05:27 22,7 C 5,8 C 61 % 95 % 1004,1 hPa 0,0 l/m 0,0 km/h (0 Bft) N 0 5,1 C 5,8 C 0,0 km/h (0 Bft) 100,00 %
19.05.2019 05:26 22,7 C 5,8 C 61 % 95 % 1004,1 hPa 0,0 l/m 0,0 km/h (0 Bft) N 0 5,1 C 5,8 C 0,0 km/h (0 Bft) 100,00 %
19.05.2019 05:25 22,7 C 5,8 C 61 % 95 % 1004,1 hPa 0,0 l/m 0,0 km/h (0 Bft) N 0 5,1 C 5,8 C 0,0 km/h (0 Bft) 100,00 %
19.05.2019 05:24 22,7 C 5,8 C 61 % 95 % 1004,1 hPa 0,0 l/m 0,0 km/h (0 Bft) SW 225 5,1 C 5,8 C 1,6 km/h (1 Bft) 100,00 %
19.05.2019 05:23 22,7 C 5,8 C 61 % 95 % 1004,1 hPa 0,0 l/m 0,0 km/h (0 Bft) N 0 5,1 C 5,8 C 0,0 km/h (0 Bft) 100,00 %
19.05.2019 05:22 22,7 C 5,9 C 61 % 95 % 1004,1 hPa 0,0 l/m 0,0 km/h (0 Bft) N 0 5,2 C 5,9 C 0,0 km/h (0 Bft) 100,00 %
19.05.2019 05:21 22,7 C 5,9 C 61 % 95 % 1004,1 hPa 0,0 l/m 0,0 km/h (0 Bft) N 0 5,2 C 5,9 C 0,0 km/h (0 Bft) 100,00 %
19.05.2019 05:20 22,8 C 5,9 C 61 % 95 % 1004,2 hPa 0,0 l/m 0,0 km/h (0 Bft) N 0 5,2 C 5,9 C 0,0 km/h (0 Bft) 100,00 %
19.05.2019 05:19 22,7 C 5,9 C 61 % 95 % 1004,1 hPa 0,0 l/m 0,0 km/h (0 Bft) N 0 5,2 C 5,9 C 0,0 km/h (0 Bft) 100,00 %
19.05.2019 05:18 22,7 C 5,9 C 61 % 95 % 1004,1 hPa 0,0 l/m 0,0 km/h (0 Bft) N 0 5,2 C 5,9 C 0,0 km/h (0 Bft) 100,00 %
19.05.2019 05:17 22,7 C 5,9 C 61 % 95 % 1004,1 hPa 0,0 l/m 0,0 km/h (0 Bft) N 0 5,2 C 5,9 C 0,0 km/h (0 Bft) 91,30 %
19.05.2019 05:16 22,7 C 6,0 C 61 % 95 % 1004,2 hPa 0,0 l/m 0,0 km/h (0 Bft) N 0 5,3 C 6,0 C 0,0 km/h (0 Bft) 100,00 %
19.05.2019 05:15 22,8 C 6,0 C 61 % 95 % 1004,2 hPa 0,0 l/m 0,0 km/h (0 Bft) N 0 5,3 C 6,0 C 0,0 km/h (0 Bft) 95,65 %
19.05.2019 05:14 22,8 C 6,0 C 61 % 95 % 1004,2 hPa 0,0 l/m 0,0 km/h (0 Bft) N 0 5,3 C 6,0 C 0,0 km/h (0 Bft) 100,00 %
19.05.2019 05:13 22,8 C 6,1 C 61 % 95 % 1004,2 hPa 0,0 l/m 0,0 km/h (0 Bft) N 0 5,4 C 6,1 C 0,0 km/h (0 Bft) 100,00 %
19.05.2019 05:12 22,7 C 6,1 C 61 % 95 % 1004,2 hPa 0,0 l/m 0,0 km/h (0 Bft) N 0 5,4 C 6,1 C 0,0 km/h (0 Bft) 100,00 %
19.05.2019 05:11 22,7 C 6,1 C 61 % 95 % 1004,2 hPa 0,0 l/m 0,0 km/h (0 Bft) SW 225 5,4 C 6,1 C 1,6 km/h (1 Bft) 100,00 %
19.05.2019 05:10 22,8 C 6,1 C 61 % 95 % 1004,2 hPa 0,0 l/m 0,0 km/h (0 Bft) N 0 5,4 C 6,1 C 0,0 km/h (0 Bft) 100,00 %
19.05.2019 05:09 22,8 C 6,1 C 61 % 95 % 1004,1 hPa 0,0 l/m 0,0 km/h (0 Bft) N 0 5,4 C 6,1 C 0,0 km/h (0 Bft) 100,00 %
19.05.2019 05:08 22,8 C 6,1 C 61 % 95 % 1004,2 hPa 0,0 l/m 0,0 km/h (0 Bft) SW 225 5,4 C 6,1 C 1,6 km/h (1 Bft) 100,00 %
19.05.2019 05:07 22,8 C 6,1 C 61 % 95 % 1004,1 hPa 0,0 l/m 0,0 km/h (0 Bft) SW 225 5,4 C 6,1 C 1,6 km/h (1 Bft) 100,00 %
19.05.2019 05:06 22,8 C 6,1 C 61 % 95 % 1004,1 hPa 0,0 l/m 0,0 km/h (0 Bft) N 0 5,4 C 6,1 C 0,0 km/h (0 Bft) 100,00 %
19.05.2019 05:05 22,8 C 6,1 C 61 % 95 % 1004,2 hPa 0,0 l/m 0,0 km/h (0 Bft) N 0 5,4 C 6,1 C 0,0 km/h (0 Bft) 100,00 %
19.05.2019 05:04 22,8 C 6,1 C 61 % 95 % 1004,2 hPa 0,0 l/m 0,0 km/h (0 Bft) N 0 5,4 C 6,1 C 0,0 km/h (0 Bft) 100,00 %
19.05.2019 05:03 22,8 C 6,1 C 61 % 95 % 1004,3 hPa 0,0 l/m 0,0 km/h (0 Bft) N 0 5,4 C 6,1 C 0,0 km/h (0 Bft) 95,65 %
19.05.2019 05:02 22,8 C 6,1 C 61 % 95 % 1004,3 hPa 0,0 l/m 0,0 km/h (0 Bft) N 0 5,4 C 6,1 C 0,0 km/h (0 Bft) 100,00 %
19.05.2019 05:01 22,8 C 6,2 C 61 % 95 % 1004,3 hPa 0,0 l/m 0,0 km/h (0 Bft) N 0 5,5 C 6,2 C 0,0 km/h (0 Bft) 100,00 %
19.05.2019 05:00 22,7 C 6,2 C 61 % 95 % 1004,2 hPa 0,0 l/m 0,0 km/h (0 Bft) N 0 5,5 C 6,2 C 0,0 km/h (0 Bft) 100,00 %
19.05.2019 04:59 22,8 C 6,2 C 61 % 95 % 1004,2 hPa 0,0 l/m 0,0 km/h (0 Bft) N 0 5,5 C 6,2 C 0,0 km/h (0 Bft) 100,00 %
19.05.2019 04:58 22,8 C 6,2 C 61 % 95 % 1004,2 hPa 0,0 l/m 0,0 km/h (0 Bft) N 0 5,5 C 6,2 C 0,0 km/h (0 Bft) 100,00 %
19.05.2019 04:57 22,8 C 6,2 C 61 % 95 % 1004,2 hPa 0,0 l/m 0,0 km/h (0 Bft) N 0 5,5 C 6,2 C 0,0 km/h (0 Bft) 100,00 %
19.05.2019 04:56 22,8 C 6,2 C 61 % 95 % 1004,1 hPa 0,0 l/m 0,0 km/h (0 Bft) SW 225 5,5 C 6,2 C 1,6 km/h (1 Bft) 100,00 %
19.05.2019 04:55 22,8 C 6,2 C 61 % 95 % 1004,1 hPa 0,0 l/m 0,0 km/h (0 Bft) N 0 5,5 C 6,2 C 0,0 km/h (0 Bft) 100,00 %
19.05.2019 04:54 22,8 C 6,2 C 61 % 95 % 1004,2 hPa 0,0 l/m 0,0 km/h (0 Bft) N 0 5,5 C 6,2 C 0,0 km/h (0 Bft) 95,65 %
19.05.2019 04:53 22,8 C 6,2 C 61 % 95 % 1004,2 hPa 0,0 l/m 0,0 km/h (0 Bft) N 0 5,5 C 6,2 C 0,0 km/h (0 Bft) 100,00 %
19.05.2019 04:52 22,8 C 6,2 C 61 % 95 % 1004,2 hPa 0,0 l/m 0,0 km/h (0 Bft) N 0 5,5 C 6,2 C 0,0 km/h (0 Bft) 100,00 %
19.05.2019 04:51 22,8 C 6,2 C 61 % 95 % 1004,3 hPa 0,0 l/m 0,0 km/h (0 Bft) SW 225 5,5 C 6,2 C 1,6 km/h (1 Bft) 95,65 %
19.05.2019 04:50 22,8 C 6,2 C 61 % 95 % 1004,2 hPa 0,0 l/m 0,0 km/h (0 Bft) N 0 5,5 C 6,2 C 0,0 km/h (0 Bft) 100,00 %
19.05.2019 04:49 22,8 C 6,2 C 61 % 95 % 1004,2 hPa 0,0 l/m 0,0 km/h (0 Bft) N 0 5,5 C 6,2 C 0,0 km/h (0 Bft) 95,65 %
19.05.2019 04:48 22,8 C 6,2 C 61 % 95 % 1004,3 hPa 0,0 l/m 0,0 km/h (0 Bft) N 0 5,5 C 6,2 C 0,0 km/h (0 Bft) 100,00 %
19.05.2019 04:47 22,8 C 6,3 C 61 % 95 % 1004,2 hPa 0,0 l/m 0,0 km/h (0 Bft) N 0 5,6 C 6,3 C 0,0 km/h (0 Bft) 100,00 %
19.05.2019 04:46 22,8 C 6,3 C 61 % 95 % 1004,2 hPa 0,0 l/m 0,0 km/h (0 Bft) N 0 5,6 C 6,3 C 0,0 km/h (0 Bft) 95,65 %
19.05.2019 04:45 22,8 C 6,3 C 61 % 95 % 1004,3 hPa 0,0 l/m 0,0 km/h (0 Bft) N 0 5,6 C 6,3 C 0,0 km/h (0 Bft) 100,00 %
19.05.2019 04:44 22,8 C 6,3 C 61 % 95 % 1004,3 hPa 0,0 l/m 0,0 km/h (0 Bft) N 0 5,6 C 6,3 C 0,0 km/h (0 Bft) 100,00 %
19.05.2019 04:43 22,8 C 6,3 C 61 % 95 % 1004,2 hPa 0,0 l/m 0,0 km/h (0 Bft) N 0 5,6 C 6,3 C 0,0 km/h (0 Bft) 100,00 %
19.05.2019 04:42 22,8 C 6,3 C 61 % 95 % 1004,2 hPa 0,0 l/m 0,0 km/h (0 Bft) N 0 5,6 C 6,3 C 0,0 km/h (0 Bft) 100,00 %
19.05.2019 04:41 22,8 C 6,3 C 61 % 95 % 1004,2 hPa 0,0 l/m 0,0 km/h (0 Bft) N 0 5,6 C 6,3 C 0,0 km/h (0 Bft) 100,00 %
19.05.2019 04:40 22,8 C 6,4 C 61 % 95 % 1004,2 hPa 0,0 l/m 0,0 km/h (0 Bft) N 0 5,7 C 6,4 C 0,0 km/h (0 Bft) 100,00 %
19.05.2019 04:39 22,8 C 6,4 C 61 % 95 % 1004,2 hPa 0,0 l/m 0,0 km/h (0 Bft) N 0 5,7 C 6,4 C 0,0 km/h (0 Bft) 100,00 %
19.05.2019 04:38 22,8 C 6,4 C 61 % 95 % 1004,1 hPa 0,0 l/m 0,0 km/h (0 Bft) N 0 5,7 C 6,4 C 0,0 km/h (0 Bft) 100,00 %
19.05.2019 04:37 22,8 C 6,4 C 61 % 95 % 1004,1 hPa 0,0 l/m 0,0 km/h (0 Bft) N 0 5,7 C 6,4 C 0,0 km/h (0 Bft) 100,00 %
19.05.2019 04:36 22,8 C 6,4 C 61 % 95 % 1004,1 hPa 0,0 l/m 0,0 km/h (0 Bft) N 0 5,7 C 6,4 C 0,0 km/h (0 Bft) 95,65 %
19.05.2019 04:35 22,8 C 6,4 C 61 % 95 % 1004,2 hPa 0,0 l/m 0,0 km/h (0 Bft) N 0 5,7 C 6,4 C 0,0 km/h (0 Bft) 100,00 %
19.05.2019 04:34 22,8 C 6,4 C 61 % 95 % 1004,1 hPa 0,0 l/m 0,0 km/h (0 Bft) N 0 5,7 C 6,4 C 0,0 km/h (0 Bft) 95,65 %
19.05.2019 04:33 22,8 C 6,4 C 61 % 95 % 1004,2 hPa 0,0 l/m 0,0 km/h (0 Bft) N 0 5,7 C 6,4 C 0,0 km/h (0 Bft) 100,00 %
19.05.2019 04:32 22,8 C 6,4 C 61 % 95 % 1004,2 hPa 0,0 l/m 0,0 km/h (0 Bft) N 0 5,7 C 6,4 C 0,0 km/h (0 Bft) 100,00 %
19.05.2019 04:31 22,8 C 6,4 C 61 % 95 % 1004,2 hPa 0,0 l/m 0,0 km/h (0 Bft) N 0 5,7 C 6,4 C 0,0 km/h (0 Bft) 100,00 %
19.05.2019 04:30 22,8 C 6,4 C 61 % 95 % 1004,2 hPa 0,0 l/m 0,0 km/h (0 Bft) N 0 5,7 C 6,4 C 0,0 km/h (0 Bft) 100,00 %
19.05.2019 04:29 22,8 C 6,4 C 61 % 95 % 1004,3 hPa 0,0 l/m 0,0 km/h (0 Bft) N 0 5,7 C 6,4 C 0,0 km/h (0 Bft) 100,00 %
19.05.2019 04:28 22,8 C 6,5 C 61 % 95 % 1004,1 hPa 0,0 l/m 0,0 km/h (0 Bft) N 0 5,8 C 6,5 C 0,0 km/h (0 Bft) 100,00 %
19.05.2019 04:27 22,8 C 6,4 C 61 % 95 % 1004,2 hPa 0,0 l/m 0,0 km/h (0 Bft) N 0 5,7 C 6,4 C 0,0 km/h (0 Bft) 95,65 %
19.05.2019 04:26 22,8 C 6,5 C 61 % 95 % 1004,2 hPa 0,0 l/m 0,0 km/h (0 Bft) N 0 5,8 C 6,5 C 0,0 km/h (0 Bft) 100,00 %
19.05.2019 04:25 22,8 C 6,5 C 61 % 95 % 1004,2 hPa 0,0 l/m 0,0 km/h (0 Bft) N 0 5,8 C 6,5 C 0,0 km/h (0 Bft) 95,65 %
19.05.2019 04:24 22,8 C 6,5 C 61 % 95 % 1004,3 hPa 0,0 l/m 0,0 km/h (0 Bft) N 0 5,8 C 6,5 C 0,0 km/h (0 Bft) 95,65 %
19.05.2019 04:23 22,8 C 6,5 C 61 % 95 % 1004,3 hPa 0,0 l/m 0,0 km/h (0 Bft) N 0 5,8 C 6,5 C 0,0 km/h (0 Bft) 100,00 %
19.05.2019 04:22 22,8 C 6,6 C 61 % 95 % 1004,3 hPa 0,0 l/m 0,0 km/h (0 Bft) N 0 5,9 C 6,6 C 0,0 km/h (0 Bft) 100,00 %
19.05.2019 04:21 22,8 C 6,6 C 61 % 95 % 1004,3 hPa 0,0 l/m 0,0 km/h (0 Bft) N 0 5,9 C 6,6 C 0,0 km/h (0 Bft) 100,00 %
19.05.2019 04:20 22,8 C 6,6 C 61 % 95 % 1004,3 hPa 0,0 l/m 0,0 km/h (0 Bft) N 0 5,9 C 6,6 C 0,0 km/h (0 Bft) 91,30 %
19.05.2019 04:19 22,8 C 6,6 C 61 % 95 % 1004,2 hPa 0,0 l/m 0,0 km/h (0 Bft) N 0 5,9 C 6,6 C 0,0 km/h (0 Bft) 95,65 %
19.05.2019 04:18 22,8 C 6,6 C 61 % 95 % 1004,3 hPa 0,0 l/m 0,0 km/h (0 Bft) N 0 5,9 C 6,6 C 0,0 km/h (0 Bft) 100,00 %
19.05.2019 04:17 22,8 C 6,6 C 61 % 95 % 1004,3 hPa 0,0 l/m 0,0 km/h (0 Bft) N 0 5,9 C 6,6 C 0,0 km/h (0 Bft) 100,00 %
19.05.2019 04:16 22,8 C 6,6 C 61 % 95 % 1004,3 hPa 0,0 l/m 0,0 km/h (0 Bft) SW 225 5,9 C 6,6 C 1,6 km/h (1 Bft) 100,00 %
19.05.2019 04:15 22,8 C 6,6 C 61 % 95 % 1004,3 hPa 0,0 l/m 0,0 km/h (0 Bft) N 0 5,9 C 6,6 C 0,0 km/h (0 Bft) 100,00 %
19.05.2019 04:14 22,8 C 6,6 C 61 % 95 % 1004,3 hPa 0,0 l/m 0,0 km/h (0 Bft) SW 225 5,9 C 6,6 C 1,6 km/h (1 Bft) 91,30 %
19.05.2019 04:13 22,8 C 6,6 C 61 % 95 % 1004,3 hPa 0,0 l/m 0,0 km/h (0 Bft) SW 225 5,9 C 6,6 C 1,6 km/h (1 Bft) 95,65 %
19.05.2019 04:12 22,8 C 6,6 C 61 % 95 % 1004,3 hPa 0,0 l/m 0,0 km/h (0 Bft) SW 225 5,9 C 6,6 C 1,6 km/h (1 Bft) 91,30 %
19.05.2019 04:11 22,8 C 6,6 C 61 % 95 % 1004,3 hPa 0,0 l/m 0,0 km/h (0 Bft) N 0 5,9 C 6,6 C 0,0 km/h (0 Bft) 100,00 %
19.05.2019 04:10 22,8 C 6,6 C 61 % 95 % 1004,3 hPa 0,0 l/m 0,0 km/h (0 Bft) N 0 5,9 C 6,6 C 0,0 km/h (0 Bft) 100,00 %
19.05.2019 04:09 22,8 C 6,6 C 61 % 95 % 1004,3 hPa 0,0 l/m 0,0 km/h (0 Bft) N 0 5,9 C 6,6 C 0,0 km/h (0 Bft) 100,00 %
19.05.2019 04:08 22,8 C 6,7 C 61 % 95 % 1004,3 hPa 0,0 l/m 0,0 km/h (0 Bft) N 0 6,0 C 6,7 C 0,0 km/h (0 Bft) 91,30 %
19.05.2019 04:07 22,8 C 6,7 C 61 % 95 % 1004,3 hPa 0,0 l/m 0,0 km/h (0 Bft) SW 225 6,0 C 6,7 C 1,6 km/h (1 Bft) 100,00 %
19.05.2019 04:06 22,8 C 6,7 C 61 % 95 % 1004,3 hPa 0,0 l/m 1,6 km/h (1 Bft) SW 225 6,0 C 6,7 C 1,6 km/h (1 Bft) 91,30 %
19.05.2019 04:05 22,8 C 6,7 C 61 % 95 % 1004,3 hPa 0,0 l/m 0,0 km/h (0 Bft) N 0 6,0 C 6,7 C 0,0 km/h (0 Bft) 100,00 %
19.05.2019 04:04 22,8 C 6,7 C 61 % 95 % 1004,3 hPa 0,0 l/m 0,0 km/h (0 Bft) N 0 6,0 C 6,7 C 0,0 km/h (0 Bft) 100,00 %
19.05.2019 04:03 22,8 C 6,7 C 61 % 95 % 1004,3 hPa 0,0 l/m 0,0 km/h (0 Bft) N 0 6,0 C 6,7 C 0,0 km/h (0 Bft) 100,00 %
19.05.2019 04:02 22,8 C 6,7 C 61 % 95 % 1004,2 hPa 0,0 l/m 0,0 km/h (0 Bft) N 0 6,0 C 6,7 C 0,0 km/h (0 Bft) 100,00 %
19.05.2019 04:01 22,8 C 6,8 C 61 % 95 % 1004,2 hPa 0,0 l/m 0,0 km/h (0 Bft) N 0 6,1 C 6,8 C 0,0 km/h (0 Bft) 100,00 %
19.05.2019 04:00 22,8 C 6,8 C 61 % 95 % 1004,3 hPa 0,0 l/m 0,0 km/h (0 Bft) N 0 6,1 C 6,8 C 0,0 km/h (0 Bft) 95,65 %
19.05.2019 03:59 22,8 C 6,8 C 61 % 95 % 1004,3 hPa 0,0 l/m 0,0 km/h (0 Bft) N 0 6,1 C 6,8 C 0,0 km/h (0 Bft) 100,00 %
19.05.2019 03:58 22,8 C 6,8 C 61 % 95 % 1004,2 hPa 0,0 l/m 0,0 km/h (0 Bft) N 0 6,1 C 6,8 C 0,0 km/h (0 Bft) 100,00 %
19.05.2019 03:57 22,8 C 6,8 C 61 % 95 % 1004,3 hPa 0,0 l/m 0,0 km/h (0 Bft) N 0 6,1 C 6,8 C 0,0 km/h (0 Bft) 100,00 %
19.05.2019 03:56 22,8 C 6,8 C 61 % 95 % 1004,3 hPa 0,0 l/m 0,0 km/h (0 Bft) N 0 6,1 C 6,8 C 0,0 km/h (0 Bft) 95,65 %
19.05.2019 03:55 22,8 C 6,8 C 61 % 95 % 1004,3 hPa 0,0 l/m 0,0 km/h (0 Bft) N 0 6,1 C 6,8 C 0,0 km/h (0 Bft) 95,65 %
19.05.2019 03:54 22,8 C 6,8 C 61 % 95 % 1004,3 hPa 0,0 l/m 0,0 km/h (0 Bft) N 0 6,1 C 6,8 C 0,0 km/h (0 Bft) 100,00 %
19.05.2019 03:53 22,8 C 6,8 C 61 % 95 % 1004,3 hPa 0,0 l/m 0,0 km/h (0 Bft) N 0 6,1 C 6,8 C 0,0 km/h (0 Bft) 95,65 %
19.05.2019 03:52 22,8 C 6,8 C 61 % 95 % 1004,2 hPa 0,0 l/m 0,0 km/h (0 Bft) N 0 6,1 C 6,8 C 0,0 km/h (0 Bft) 100,00 %
19.05.2019 03:51 22,8 C 6,8 C 61 % 95 % 1004,3 hPa 0,0 l/m 0,0 km/h (0 Bft) N 0 6,1 C 6,8 C 0,0 km/h (0 Bft) 100,00 %
19.05.2019 03:50 22,8 C 6,9 C 61 % 95 % 1004,3 hPa 0,0 l/m 0,0 km/h (0 Bft) N 0 6,2 C 6,9 C 0,0 km/h (0 Bft) 100,00 %
19.05.2019 03:49 22,8 C 6,9 C 61 % 95 % 1004,4 hPa 0,0 l/m 0,0 km/h (0 Bft) N 0 6,2 C 6,9 C 0,0 km/h (0 Bft) 95,65 %
19.05.2019 03:48 22,8 C 6,9 C 61 % 95 % 1004,3 hPa 0,0 l/m 0,0 km/h (0 Bft) N 0 6,2 C 6,9 C 0,0 km/h (0 Bft) 100,00 %
19.05.2019 03:47 22,8 C 6,9 C 61 % 95 % 1004,3 hPa 0,0 l/m 0,0 km/h (0 Bft) N 0 6,2 C 6,9 C 0,0 km/h (0 Bft) 100,00 %
19.05.2019 03:46 22,8 C 6,9 C 61 % 95 % 1004,3 hPa 0,0 l/m 0,0 km/h (0 Bft) N 0 6,2 C 6,9 C 0,0 km/h (0 Bft) 95,65 %
19.05.2019 03:45 22,8 C 6,9 C 61 % 95 % 1004,3 hPa 0,0 l/m 0,0 km/h (0 Bft) N 0 6,2 C 6,9 C 0,0 km/h (0 Bft) 100,00 %
19.05.2019 03:44 22,8 C 7,0 C 61 % 95 % 1004,3 hPa 0,0 l/m 0,0 km/h (0 Bft) N 0 6,3 C 7,0 C 0,0 km/h (0 Bft) 100,00 %
19.05.2019 03:43 22,8 C 6,9 C 61 % 95 % 1004,3 hPa 0,0 l/m 0,0 km/h (0 Bft) N 0 6,2 C 6,9 C 0,0 km/h (0 Bft) 100,00 %
19.05.2019 03:42 22,8 C 7,0 C 61 % 95 % 1004,3 hPa 0,0 l/m 0,0 km/h (0 Bft) SW 225 6,3 C 7,0 C 1,6 km/h (1 Bft) 100,00 %
19.05.2019 03:41 22,8 C 7,0 C 61 % 95 % 1004,3 hPa 0,0 l/m 0,0 km/h (0 Bft) N 0 6,3 C 7,0 C 0,0 km/h (0 Bft) 95,65 %
19.05.2019 03:40 22,8 C 7,0 C 61 % 95 % 1004,3 hPa 0,0 l/m 0,0 km/h (0 Bft) N 0 6,3 C 7,0 C 0,0 km/h (0 Bft) 100,00 %
19.05.2019 03:39 22,8 C 7,0 C 61 % 95 % 1004,3 hPa 0,0 l/m 0,0 km/h (0 Bft) N 0 6,3 C 7,0 C 0,0 km/h (0 Bft) 100,00 %
19.05.2019 03:38 22,8 C 6,9 C 61 % 95 % 1004,3 hPa 0,0 l/m 0,0 km/h (0 Bft) N 0 6,2 C 6,9 C 0,0 km/h (0 Bft) 100,00 %
19.05.2019 03:37 22,8 C 6,9 C 61 % 95 % 1004,3 hPa 0,0 l/m 0,0 km/h (0 Bft) N 0 6,2 C 6,9 C 0,0 km/h (0 Bft) 100,00 %
19.05.2019 03:36 22,8 C 6,9 C 61 % 94 % 1004,4 hPa 0,0 l/m 0,0 km/h (0 Bft) N 0 6,0 C 6,9 C 0,0 km/h (0 Bft) 95,65 %
19.05.2019 03:35 22,8 C 6,9 C 61 % 94 % 1004,4 hPa 0,0 l/m 0,0 km/h (0 Bft) SW 225 6,0 C 6,9 C 1,6 km/h (1 Bft) 100,00 %
19.05.2019 03:34 22,8 C 6,9 C 61 % 94 % 1004,3 hPa 0,0 l/m 0,0 km/h (0 Bft) SW 225 6,0 C 6,9 C 1,6 km/h (1 Bft) 95,65 %
19.05.2019 03:33 22,8 C 6,9 C 61 % 94 % 1004,3 hPa 0,0 l/m 0,0 km/h (0 Bft) N 0 6,0 C 6,9 C 0,0 km/h (0 Bft) 100,00 %
19.05.2019 03:32 22,8 C 6,9 C 61 % 94 % 1004,3 hPa 0,0 l/m 0,0 km/h (0 Bft) N 0 6,0 C 6,9 C 0,0 km/h (0 Bft) 100,00 %
19.05.2019 03:31 22,8 C 7,0 C 61 % 94 % 1004,3 hPa 0,0 l/m 0,0 km/h (0 Bft) N 0 6,1 C 7,0 C 0,0 km/h (0 Bft) 100,00 %
19.05.2019 03:30 22,8 C 7,1 C 61 % 94 % 1004,2 hPa 0,0 l/m 0,0 km/h (0 Bft) N 0 6,2 C 7,1 C 0,0 km/h (0 Bft) 100,00 %
19.05.2019 03:29 22,8 C 7,1 C 61 % 94 % 1004,3 hPa 0,0 l/m 0,0 km/h (0 Bft) N 0 6,2 C 7,1 C 0,0 km/h (0 Bft) 100,00 %
19.05.2019 03:28 22,8 C 7,1 C 61 % 94 % 1004,2 hPa 0,0 l/m 0,0 km/h (0 Bft) N 0 6,2 C 7,1 C 0,0 km/h (0 Bft) 100,00 %
19.05.2019 03:27 22,8 C 7,1 C 61 % 94 % 1004,3 hPa 0,0 l/m 0,0 km/h (0 Bft) N 0 6,2 C 7,1 C 0,0 km/h (0 Bft) 100,00 %
19.05.2019 03:26 22,8 C 7,1 C 61 % 94 % 1004,2 hPa 0,0 l/m 0,0 km/h (0 Bft) N 0 6,2 C 7,1 C 0,0 km/h (0 Bft) 100,00 %
19.05.2019 03:25 22,8 C 7,1 C 61 % 94 % 1004,3 hPa 0,0 l/m 0,0 km/h (0 Bft) N 0 6,2 C 7,1 C 0,0 km/h (0 Bft) 100,00 %
19.05.2019 03:24 22,8 C 7,2 C 61 % 94 % 1004,3 hPa 0,0 l/m 0,0 km/h (0 Bft) N 0 6,3 C 7,2 C 0,0 km/h (0 Bft) 100,00 %
19.05.2019 03:23 22,8 C 7,2 C 61 % 94 % 1004,3 hPa 0,0 l/m 0,0 km/h (0 Bft) N 0 6,3 C 7,2 C 0,0 km/h (0 Bft) 100,00 %
19.05.2019 03:22 22,8 C 7,2 C 61 % 94 % 1004,3 hPa 0,0 l/m 0,0 km/h (0 Bft) SW 225 6,3 C 7,2 C 1,6 km/h (1 Bft) 100,00 %
19.05.2019 03:21 22,8 C 7,2 C 61 % 94 % 1004,3 hPa 0,0 l/m 0,0 km/h (0 Bft) N 0 6,3 C 7,2 C 0,0 km/h (0 Bft) 100,00 %
19.05.2019 03:20 22,8 C 7,2 C 61 % 94 % 1004,3 hPa 0,0 l/m 0,0 km/h (0 Bft) SW 225 6,3 C 7,2 C 1,6 km/h (1 Bft) 95,65 %
19.05.2019 03:19 22,8 C 7,3 C 61 % 94 % 1004,3 hPa 0,0 l/m 0,0 km/h (0 Bft) SW 225 6,4 C 7,3 C 1,6 km/h (1 Bft) 95,65 %
19.05.2019 03:18 22,8 C 7,3 C 61 % 95 % 1004,3 hPa 0,0 l/m 1,6 km/h (1 Bft) SW 225 6,6 C 7,3 C 1,6 km/h (1 Bft) 100,00 %
19.05.2019 03:17 22,8 C 7,3 C 61 % 94 % 1004,3 hPa 0,0 l/m 0,0 km/h (0 Bft) N 0 6,4 C 7,3 C 0,0 km/h (0 Bft) 100,00 %
19.05.2019 03:16 22,8 C 7,3 C 61 % 94 % 1004,3 hPa 0,0 l/m 0,0 km/h (0 Bft) N 0 6,4 C 7,3 C 0,0 km/h (0 Bft) 100,00 %
19.05.2019 03:15 22,8 C 7,3 C 61 % 94 % 1004,4 hPa 0,0 l/m 0,0 km/h (0 Bft) N 0 6,4 C 7,3 C 0,0 km/h (0 Bft) 95,65 %
19.05.2019 03:14 22,8 C 7,3 C 61 % 94 % 1004,3 hPa 0,0 l/m 0,0 km/h (0 Bft) N 0 6,4 C 7,3 C 0,0 km/h (0 Bft) 100,00 %
19.05.2019 03:13 22,8 C 7,3 C 61 % 94 % 1004,4 hPa 0,0 l/m 0,0 km/h (0 Bft) N 0 6,4 C 7,3 C 0,0 km/h (0 Bft) 95,65 %
19.05.2019 03:12 22,8 C 7,3 C 61 % 94 % 1004,3 hPa 0,0 l/m 0,0 km/h (0 Bft) N 0 6,4 C 7,3 C 0,0 km/h (0 Bft) 95,65 %
19.05.2019 03:11 22,8 C 7,3 C 61 % 94 % 1004,4 hPa 0,0 l/m 0,0 km/h (0 Bft) N 0 6,4 C 7,3 C 0,0 km/h (0 Bft) 100,00 %
19.05.2019 03:10 22,8 C 7,3 C 61 % 94 % 1004,3 hPa 0,0 l/m 0,0 km/h (0 Bft) N 0 6,4 C 7,3 C 0,0 km/h (0 Bft) 100,00 %
19.05.2019 03:09 22,8 C 7,3 C 61 % 94 % 1004,3 hPa 0,0 l/m 0,0 km/h (0 Bft) N 0 6,4 C 7,3 C 0,0 km/h (0 Bft) 100,00 %
19.05.2019 03:08 22,8 C 7,3 C 61 % 94 % 1004,3 hPa 0,0 l/m 0,0 km/h (0 Bft) S-SO 157 6,4 C 7,3 C 1,6 km/h (1 Bft) 100,00 %
19.05.2019 03:07 22,8 C 7,3 C 61 % 94 % 1004,3 hPa 0,0 l/m 0,0 km/h (0 Bft) N 0 6,4 C 7,3 C 0,0 km/h (0 Bft) 100,00 %
19.05.2019 03:06 22,8 C 7,3 C 61 % 94 % 1004,3 hPa 0,0 l/m 0,0 km/h (0 Bft) O-SO 112 6,4 C 7,3 C 1,6 km/h (1 Bft) 100,00 %
19.05.2019 03:05 22,8 C 7,3 C 61 % 94 % 1004,2 hPa 0,0 l/m 0,0 km/h (0 Bft) N 0 6,4 C 7,3 C 0,0 km/h (0 Bft) 100,00 %
19.05.2019 03:04 22,8 C 7,4 C 61 % 94 % 1004,2 hPa 0,0 l/m 0,0 km/h (0 Bft) N 0 6,5 C 7,4 C 0,0 km/h (0 Bft) 100,00 %
19.05.2019 03:03 22,8 C 7,4 C 61 % 94 % 1004,3 hPa 0,0 l/m 0,0 km/h (0 Bft) N 0 6,5 C 7,4 C 0,0 km/h (0 Bft) 100,00 %
19.05.2019 03:02 22,8 C 7,4 C 61 % 94 % 1004,3 hPa 0,0 l/m 0,0 km/h (0 Bft) N 0 6,5 C 7,4 C 0,0 km/h (0 Bft) 100,00 %
19.05.2019 03:01 22,8 C 7,5 C 61 % 94 % 1004,3 hPa 0,0 l/m 0,0 km/h (0 Bft) N 0 6,6 C 7,5 C 0,0 km/h (0 Bft) 100,00 %
19.05.2019 03:00 22,8 C 7,5 C 61 % 94 % 1004,3 hPa 0,0 l/m 0,0 km/h (0 Bft) N 0 6,6 C 7,5 C 0,0 km/h (0 Bft) 95,65 %
19.05.2019 02:59 22,8 C 7,6 C 61 % 94 % 1004,3 hPa 0,0 l/m 0,0 km/h (0 Bft) N 0 6,7 C 7,6 C 0,0 km/h (0 Bft) 100,00 %
19.05.2019 02:58 22,8 C 7,6 C 61 % 94 % 1004,3 hPa 0,0 l/m 0,0 km/h (0 Bft) N 0 6,7 C 7,6 C 0,0 km/h (0 Bft) 100,00 %
19.05.2019 02:57 22,8 C 7,6 C 61 % 94 % 1004,3 hPa 0,0 l/m 0,0 km/h (0 Bft) N 0 6,7 C 7,6 C 0,0 km/h (0 Bft) 100,00 %
19.05.2019 02:56 22,8 C 7,7 C 60 % 94 % 1004,4 hPa 0,0 l/m 0,0 km/h (0 Bft) N 0 6,8 C 7,7 C 0,0 km/h (0 Bft) 100,00 %
19.05.2019 02:55 22,8 C 7,7 C 61 % 94 % 1004,3 hPa 0,0 l/m 0,0 km/h (0 Bft) N 0 6,8 C 7,7 C 0,0 km/h (0 Bft) 91,30 %
19.05.2019 02:54 22,8 C 7,7 C 61 % 94 % 1004,4 hPa 0,0 l/m 0,0 km/h (0 Bft) N 0 6,8 C 7,7 C 0,0 km/h (0 Bft) 100,00 %
19.05.2019 02:53 22,8 C 7,7 C 61 % 94 % 1004,3 hPa 0,0 l/m 0,0 km/h (0 Bft) N 0 6,8 C 7,7 C 0,0 km/h (0 Bft) 100,00 %
19.05.2019 02:52 22,8 C 7,7 C 60 % 94 % 1004,4 hPa 0,0 l/m 0,0 km/h (0 Bft) N 0 6,8 C 7,7 C 0,0 km/h (0 Bft) 100,00 %
19.05.2019 02:51 22,8 C 7,6 C 61 % 94 % 1004,4 hPa 0,0 l/m 0,0 km/h (0 Bft) N 0 6,7 C 7,6 C 0,0 km/h (0 Bft) 100,00 %
19.05.2019 02:50 22,8 C 7,6 C 61 % 94 % 1004,3 hPa 0,0 l/m 0,0 km/h (0 Bft) N 0 6,7 C 7,6 C 0,0 km/h (0 Bft) 95,65 %
19.05.2019 02:49 22,8 C 7,7 C 61 % 94 % 1004,3 hPa 0,0 l/m 0,0 km/h (0 Bft) N 0 6,8 C 7,7 C 0,0 km/h (0 Bft) 100,00 %
19.05.2019 02:48 22,9 C 7,7 C 61 % 94 % 1004,3 hPa 0,0 l/m 0,0 km/h (0 Bft) N 0 6,8 C 7,7 C 0,0 km/h (0 Bft) 100,00 %
19.05.2019 02:47 22,8 C 7,7 C 61 % 94 % 1004,3 hPa 0,0 l/m 0,0 km/h (0 Bft) N 0 6,8 C 7,7 C 0,0 km/h (0 Bft) 100,00 %
19.05.2019 02:46 22,9 C 7,8 C 61 % 94 % 1004,3 hPa 0,0 l/m 0,0 km/h (0 Bft) N 0 6,9 C 7,8 C 0,0 km/h (0 Bft) 100,00 %
19.05.2019 02:45 22,8 C 7,8 C 61 % 94 % 1004,3 hPa 0,0 l/m 0,0 km/h (0 Bft) N 0 6,9 C 7,8 C 0,0 km/h (0 Bft) 100,00 %
19.05.2019 02:44 22,9 C 7,8 C 60 % 94 % 1004,3 hPa 0,0 l/m 0,0 km/h (0 Bft) N 0 6,9 C 7,8 C 0,0 km/h (0 Bft) 100,00 %
19.05.2019 02:43 22,9 C 7,8 C 60 % 94 % 1004,2 hPa 0,0 l/m 0,0 km/h (0 Bft) N 0 6,9 C 7,8 C 0,0 km/h (0 Bft) 95,65 %
19.05.2019 02:42 22,9 C 7,8 C 60 % 94 % 1004,3 hPa 0,0 l/m 0,0 km/h (0 Bft) N 0 6,9 C 7,8 C 0,0 km/h (0 Bft) 100,00 %
19.05.2019 02:41 22,9 C 7,8 C 60 % 94 % 1004,2 hPa 0,0 l/m 0,0 km/h (0 Bft) N 0 6,9 C 7,8 C 0,0 km/h (0 Bft) 100,00 %
19.05.2019 02:40 22,9 C 7,8 C 60 % 94 % 1004,3 hPa 0,0 l/m 0,0 km/h (0 Bft) N 0 6,9 C 7,8 C 0,0 km/h (0 Bft) 100,00 %
19.05.2019 02:39 22,9 C 7,8 C 60 % 94 % 1004,3 hPa 0,0 l/m 0,0 km/h (0 Bft) N 0 6,9 C 7,8 C 0,0 km/h (0 Bft) 100,00 %
19.05.2019 02:38 22,9 C 7,8 C 60 % 94 % 1004,4 hPa 0,0 l/m 0,0 km/h (0 Bft) N 0 6,9 C 7,8 C 0,0 km/h (0 Bft) 100,00 %
19.05.2019 02:37 22,9 C 7,8 C 60 % 94 % 1004,4 hPa 0,0 l/m 0,0 km/h (0 Bft) N 0 6,9 C 7,8 C 0,0 km/h (0 Bft) 100,00 %
19.05.2019 02:36 22,9 C 7,8 C 60 % 94 % 1004,4 hPa 0,0 l/m 0,0 km/h (0 Bft) N 0 6,9 C 7,8 C 0,0 km/h (0 Bft) 95,65 %
19.05.2019 02:35 22,9 C 7,8 C 60 % 94 % 1004,4 hPa 0,0 l/m 0,0 km/h (0 Bft) N 0 6,9 C 7,8 C 0,0 km/h (0 Bft) 100,00 %
19.05.2019 02:34 22,9 C 7,8 C 60 % 94 % 1004,4 hPa 0,0 l/m 0,0 km/h (0 Bft) N 0 6,9 C 7,8 C 0,0 km/h (0 Bft) 95,65 %
19.05.2019 02:33 22,9 C 7,9 C 60 % 94 % 1004,4 hPa 0,0 l/m 0,0 km/h (0 Bft) N 0 7,0 C 7,9 C 0,0 km/h (0 Bft) 100,00 %
19.05.2019 02:32 22,9 C 7,9 C 60 % 94 % 1004,5 hPa 0,0 l/m 0,0 km/h (0 Bft) O-SO 112 7,0 C 7,9 C 1,6 km/h (1 Bft) 100,00 %
19.05.2019 02:31 22,9 C 7,8 C 60 % 93 % 1004,5 hPa 0,0 l/m 0,0 km/h (0 Bft) N 0 6,7 C 7,8 C 0,0 km/h (0 Bft) 95,65 %
19.05.2019 02:30 22,9 C 7,9 C 60 % 93 % 1004,4 hPa 0,0 l/m 0,0 km/h (0 Bft) N 0 6,8 C 7,9 C 0,0 km/h (0 Bft) 100,00 %
19.05.2019 02:29 22,9 C 7,9 C 60 % 93 % 1004,4 hPa 0,0 l/m 0,0 km/h (0 Bft) N 0 6,8 C 7,9 C 0,0 km/h (0 Bft) 100,00 %
19.05.2019 02:28 22,9 C 7,9 C 60 % 93 % 1004,2 hPa 0,0 l/m 0,0 km/h (0 Bft) N 0 6,8 C 7,9 C 0,0 km/h (0 Bft) 100,00 %
19.05.2019 02:27 22,9 C 7,9 C 60 % 93 % 1004,3 hPa 0,0 l/m 0,0 km/h (0 Bft) N 0 6,8 C 7,9 C 0,0 km/h (0 Bft) 100,00 %
19.05.2019 02:26 22,9 C 7,9 C 60 % 93 % 1004,3 hPa 0,0 l/m 0,0 km/h (0 Bft) N 0 6,8 C 7,9 C 0,0 km/h (0 Bft) 100,00 %
19.05.2019 02:25 22,9 C 7,9 C 60 % 93 % 1004,3 hPa 0,0 l/m 0,0 km/h (0 Bft) N 0 6,8 C 7,9 C 0,0 km/h (0 Bft) 100,00 %
19.05.2019 02:24 22,9 C 8,0 C 60 % 93 % 1004,2 hPa 0,0 l/m 0,0 km/h (0 Bft) N 0 6,9 C 8,0 C 0,0 km/h (0 Bft) 95,65 %
19.05.2019 02:23 22,9 C 8,0 C 60 % 93 % 1004,2 hPa 0,0 l/m 0,0 km/h (0 Bft) N 0 6,9 C 8,0 C 0,0 km/h (0 Bft) 100,00 %
19.05.2019 02:22 22,9 C 8,0 C 60 % 93 % 1004,2 hPa 0,0 l/m 0,0 km/h (0 Bft) N 0 6,9 C 8,0 C 0,0 km/h (0 Bft) 100,00 %
19.05.2019 02:21 22,9 C 8,0 C 60 % 93 % 1004,2 hPa 0,0 l/m 0,0 km/h (0 Bft) N 0 6,9 C 8,0 C 0,0 km/h (0 Bft) 100,00 %
19.05.2019 02:20 22,9 C 8,1 C 60 % 93 % 1004,3 hPa 0,0 l/m 0,0 km/h (0 Bft) N 0 7,0 C 8,1 C 0,0 km/h (0 Bft) 100,00 %
19.05.2019 02:19 22,9 C 8,1 C 60 % 93 % 1004,2 hPa 0,0 l/m 0,0 km/h (0 Bft) N 0 7,0 C 8,1 C 0,0 km/h (0 Bft) 95,65 %
19.05.2019 02:18 22,9 C 8,1 C 60 % 93 % 1004,3 hPa 0,0 l/m 0,0 km/h (0 Bft) N 0 7,0 C 8,1 C 0,0 km/h (0 Bft) 100,00 %
19.05.2019 02:17 22,9 C 8,1 C 60 % 93 % 1004,2 hPa 0,0 l/m 0,0 km/h (0 Bft) N 0 7,0 C 8,1 C 0,0 km/h (0 Bft) 100,00 %
19.05.2019 02:16 22,9 C 8,1 C 60 % 93 % 1004,3 hPa 0,0 l/m 0,0 km/h (0 Bft) N 0 7,0 C 8,1 C 0,0 km/h (0 Bft) 100,00 %
19.05.2019 02:15 22,9 C 8,1 C 60 % 93 % 1004,2 hPa 0,0 l/m 0,0 km/h (0 Bft) N 0 7,0 C 8,1 C 0,0 km/h (0 Bft) 100,00 %
19.05.2019 02:14 22,9 C 8,1 C 60 % 93 % 1004,3 hPa 0,0 l/m 0,0 km/h (0 Bft) N 0 7,0 C 8,1 C 0,0 km/h (0 Bft) 95,65 %
19.05.2019 02:13 22,9 C 8,1 C 60 % 93 % 1004,3 hPa 0,0 l/m 0,0 km/h (0 Bft) N 0 7,0 C 8,1 C 0,0 km/h (0 Bft) 100,00 %
19.05.2019 02:12 22,9 C 8,1 C 60 % 93 % 1004,2 hPa 0,0 l/m 0,0 km/h (0 Bft) N 0 7,0 C 8,1 C 0,0 km/h (0 Bft) 100,00 %
19.05.2019 02:11 22,9 C 8,2 C 60 % 93 % 1004,3 hPa 0,0 l/m 0,0 km/h (0 Bft) N 0 7,1 C 8,2 C 0,0 km/h (0 Bft) 100,00 %
19.05.2019 02:10 22,9 C 8,2 C 60 % 93 % 1004,3 hPa 0,0 l/m 0,0 km/h (0 Bft) N 0 7,1 C 8,2 C 0,0 km/h (0 Bft) 100,00 %
19.05.2019 02:09 22,9 C 8,2 C 60 % 93 % 1004,2 hPa 0,0 l/m 0,0 km/h (0 Bft) N 0 7,1 C 8,2 C 0,0 km/h (0 Bft) 100,00 %
19.05.2019 02:08 22,9 C 8,2 C 60 % 93 % 1004,2 hPa 0,0 l/m 0,0 km/h (0 Bft) N 0 7,1 C 8,2 C 0,0 km/h (0 Bft) 100,00 %
19.05.2019 02:07 22,9 C 8,3 C 60 % 93 % 1004,3 hPa 0,0 l/m 0,0 km/h (0 Bft) O-SO 112 7,2 C 8,3 C 1,6 km/h (1 Bft) 100,00 %
19.05.2019 02:06 22,9 C 8,3 C 60 % 93 % 1004,2 hPa 0,0 l/m 0,0 km/h (0 Bft) N 0 7,2 C 8,3 C 0,0 km/h (0 Bft) 100,00 %
19.05.2019 02:05 22,9 C 8,3 C 60 % 93 % 1004,2 hPa 0,0 l/m 0,0 km/h (0 Bft) N 0 7,2 C 8,3 C 0,0 km/h (0 Bft) 100,00 %
19.05.2019 02:04 22,9 C 8,3 C 60 % 93 % 1004,3 hPa 0,0 l/m 0,0 km/h (0 Bft) N 0 7,2 C 8,3 C 0,0 km/h (0 Bft) 100,00 %
19.05.2019 02:03 22,9 C 8,3 C 60 % 93 % 1004,2 hPa 0,0 l/m 0,0 km/h (0 Bft) N 0 7,2 C 8,3 C 0,0 km/h (0 Bft) 100,00 %
19.05.2019 02:02 22,9 C 8,3 C 60 % 93 % 1004,2 hPa 0,0 l/m 0,0 km/h (0 Bft) N 0 7,2 C 8,3 C 0,0 km/h (0 Bft) 100,00 %
19.05.2019 02:01 22,9 C 8,3 C 60 % 93 % 1004,2 hPa 0,0 l/m 0,0 km/h (0 Bft) N 0 7,2 C 8,3 C 0,0 km/h (0 Bft) 100,00 %
19.05.2019 02:00 22,9 C 8,3 C 60 % 93 % 1004,1 hPa 0,0 l/m 0,0 km/h (0 Bft) N 0 7,2 C 8,3 C 0,0 km/h (0 Bft) 95,65 %
19.05.2019 01:59 22,9 C 8,3 C 60 % 93 % 1004,2 hPa 0,0 l/m 0,0 km/h (0 Bft) N 0 7,2 C 8,3 C 0,0 km/h (0 Bft) 100,00 %
19.05.2019 01:58 22,9 C 8,3 C 60 % 93 % 1004,2 hPa 0,0 l/m 0,0 km/h (0 Bft) N 0 7,2 C 8,3 C 0,0 km/h (0 Bft) 100,00 %
19.05.2019 01:57 22,9 C 8,3 C 60 % 93 % 1004,2 hPa 0,0 l/m 0,0 km/h (0 Bft) N 0 7,2 C 8,3 C 0,0 km/h (0 Bft) 100,00 %
19.05.2019 01:56 22,9 C 8,3 C 60 % 93 % 1004,2 hPa 0,0 l/m 0,0 km/h (0 Bft) N 0 7,2 C 8,3 C 0,0 km/h (0 Bft) 95,65 %
19.05.2019 01:55 22,9 C 8,4 C 60 % 93 % 1004,2 hPa 0,0 l/m 0,0 km/h (0 Bft) N 0 7,3 C 8,4 C 0,0 km/h (0 Bft) 95,65 %
19.05.2019 01:54 22,9 C 8,4 C 60 % 93 % 1004,3 hPa 0,0 l/m 0,0 km/h (0 Bft) N 0 7,3 C 8,4 C 0,0 km/h (0 Bft) 100,00 %
19.05.2019 01:53 22,9 C 8,4 C 60 % 93 % 1004,2 hPa 0,0 l/m 0,0 km/h (0 Bft) N 0 7,3 C 8,4 C 0,0 km/h (0 Bft) 100,00 %
19.05.2019 01:52 22,9 C 8,4 C 60 % 93 % 1004,2 hPa 0,0 l/m 0,0 km/h (0 Bft) N 0 7,3 C 8,4 C 0,0 km/h (0 Bft) 100,00 %
19.05.2019 01:51 22,9 C 8,5 C 60 % 93 % 1004,3 hPa 0,0 l/m 0,0 km/h (0 Bft) N 0 7,4 C 8,5 C 0,0 km/h (0 Bft) 100,00 %
19.05.2019 01:50 22,9 C 8,5 C 60 % 93 % 1004,2 hPa 0,0 l/m 0,0 km/h (0 Bft) N 0 7,4 C 8,5 C 0,0 km/h (0 Bft) 100,00 %
19.05.2019 01:49 22,9 C 8,6 C 60 % 93 % 1004,2 hPa 0,0 l/m 0,0 km/h (0 Bft) N 0 7,5 C 8,6 C 0,0 km/h (0 Bft) 100,00 %
19.05.2019 01:48 22,9 C 8,6 C 60 % 93 % 1004,2 hPa 0,0 l/m 0,0 km/h (0 Bft) N 0 7,5 C 8,6 C 0,0 km/h (0 Bft) 100,00 %
19.05.2019 01:47 22,9 C 8,6 C 60 % 93 % 1004,2 hPa 0,0 l/m 0,0 km/h (0 Bft) N 0 7,5 C 8,6 C 0,0 km/h (0 Bft) 100,00 %
19.05.2019 01:46 22,9 C 8,6 C 60 % 93 % 1004,2 hPa 0,0 l/m 0,0 km/h (0 Bft) N 0 7,5 C 8,6 C 0,0 km/h (0 Bft) 100,00 %
19.05.2019 01:45 22,9 C 8,6 C 60 % 93 % 1004,2 hPa 0,0 l/m 0,0 km/h (0 Bft) N 0 7,5 C 8,6 C 0,0 km/h (0 Bft) 100,00 %
19.05.2019 01:44 22,9 C 8,6 C 60 % 93 % 1004,3 hPa 0,0 l/m 0,0 km/h (0 Bft) N 0 7,5 C 8,6 C 0,0 km/h (0 Bft) 100,00 %
19.05.2019 01:43 22,9 C 8,6 C 60 % 93 % 1004,2 hPa 0,0 l/m 0,0 km/h (0 Bft) N 0 7,5 C 8,6 C 0,0 km/h (0 Bft) 100,00 %
19.05.2019 01:42 22,9 C 8,6 C 60 % 93 % 1004,2 hPa 0,0 l/m 0,0 km/h (0 Bft) N 0 7,5 C 8,6 C 0,0 km/h (0 Bft) 100,00 %
19.05.2019 01:41 22,9 C 8,6 C 60 % 92 % 1004,3 hPa 0,0 l/m 0,0 km/h (0 Bft) N 0 7,4 C 8,6 C 0,0 km/h (0 Bft) 95,65 %
19.05.2019 01:40 22,9 C 8,6 C 60 % 92 % 1004,3 hPa 0,0 l/m 0,0 km/h (0 Bft) N 0 7,4 C 8,6 C 0,0 km/h (0 Bft) 100,00 %
19.05.2019 01:39 22,9 C 8,6 C 60 % 92 % 1004,3 hPa 0,0 l/m 0,0 km/h (0 Bft) N 0 7,4 C 8,6 C 0,0 km/h (0 Bft) 100,00 %
19.05.2019 01:38 22,9 C 8,6 C 60 % 92 % 1004,3 hPa 0,0 l/m 0,0 km/h (0 Bft) N 0 7,4 C 8,6 C 0,0 km/h (0 Bft) 100,00 %
19.05.2019 01:37 22,9 C 8,7 C 60 % 92 % 1004,3 hPa 0,0 l/m 0,0 km/h (0 Bft) N 0 7,5 C 8,7 C 0,0 km/h (0 Bft) 100,00 %
19.05.2019 01:36 22,9 C 8,7 C 60 % 92 % 1004,3 hPa 0,0 l/m 0,0 km/h (0 Bft) N 0 7,5 C 8,7 C 0,0 km/h (0 Bft) 100,00 %
19.05.2019 01:35 22,9 C 8,7 C 60 % 92 % 1004,3 hPa 0,0 l/m 0,0 km/h (0 Bft) N 0 7,5 C 8,7 C 0,0 km/h (0 Bft) 100,00 %
19.05.2019 01:34 22,9 C 8,7 C 60 % 92 % 1004,3 hPa 0,0 l/m 0,0 km/h (0 Bft) N 0 7,5 C 8,7 C 0,0 km/h (0 Bft) 100,00 %
19.05.2019 01:33 22,9 C 8,7 C 60 % 92 % 1004,3 hPa 0,0 l/m 0,0 km/h (0 Bft) N 0 7,5 C 8,7 C 0,0 km/h (0 Bft) 100,00 %
19.05.2019 01:32 22,9 C 8,7 C 60 % 92 % 1004,3 hPa 0,0 l/m 0,0 km/h (0 Bft) N 0 7,5 C 8,7 C 0,0 km/h (0 Bft) 100,00 %
19.05.2019 01:31 22,8 C 8,7 C 60 % 92 % 1004,3 hPa 0,0 l/m 0,0 km/h (0 Bft) N 0 7,5 C 8,7 C 0,0 km/h (0 Bft) 100,00 %
19.05.2019 01:30 22,9 C 8,7 C 60 % 91 % 1004,3 hPa 0,0 l/m 0,0 km/h (0 Bft) N 0 7,3 C 8,7 C 0,0 km/h (0 Bft) 100,00 %
19.05.2019 01:29 22,9 C 8,7 C 60 % 91 % 1004,3 hPa 0,0 l/m 0,0 km/h (0 Bft) N 0 7,3 C 8,7 C 0,0 km/h (0 Bft) 100,00 %
19.05.2019 01:28 22,9 C 8,7 C 60 % 91 % 1004,3 hPa 0,0 l/m 0,0 km/h (0 Bft) N 0 7,3 C 8,7 C 0,0 km/h (0 Bft) 100,00 %
19.05.2019 01:27 22,9 C 8,8 C 60 % 91 % 1004,3 hPa 0,0 l/m 0,0 km/h (0 Bft) N 0 7,4 C 8,8 C 0,0 km/h (0 Bft) 100,00 %
19.05.2019 01:26 22,9 C 8,8 C 60 % 91 % 1004,3 hPa 0,0 l/m 0,0 km/h (0 Bft) N 0 7,4 C 8,8 C 0,0 km/h (0 Bft) 100,00 %
19.05.2019 01:25 22,9 C 8,8 C 60 % 91 % 1004,3 hPa 0,0 l/m 0,0 km/h (0 Bft) N 0 7,4 C 8,8 C 0,0 km/h (0 Bft) 100,00 %
19.05.2019 01:24 22,9 C 8,9 C 60 % 91 % 1004,3 hPa 0,0 l/m 0,0 km/h (0 Bft) N 0 7,5 C 8,9 C 0,0 km/h (0 Bft) 100,00 %
19.05.2019 01:23 22,9 C 8,9 C 60 % 91 % 1004,4 hPa 0,0 l/m 0,0 km/h (0 Bft) N 0 7,5 C 8,9 C 0,0 km/h (0 Bft) 100,00 %
19.05.2019 01:22 22,9 C 8,9 C 60 % 91 % 1004,3 hPa 0,0 l/m 0,0 km/h (0 Bft) N 0 7,5 C 8,9 C 0,0 km/h (0 Bft) 100,00 %
19.05.2019 01:21 22,9 C 9,0 C 60 % 91 % 1004,3 hPa 0,0 l/m 0,0 km/h (0 Bft) N 0 7,6 C 9,0 C 0,0 km/h (0 Bft) 100,00 %
19.05.2019 01:20 22,9 C 9,0 C 60 % 91 % 1004,3 hPa 0,0 l/m 0,0 km/h (0 Bft) N 0 7,6 C 9,0 C 0,0 km/h (0 Bft) 100,00 %
19.05.2019 01:19 22,9 C 9,1 C 60 % 91 % 1004,3 hPa 0,0 l/m 0,0 km/h (0 Bft) N 0 7,7 C 9,1 C 0,0 km/h (0 Bft) 100,00 %
19.05.2019 01:18 22,9 C 9,1 C 60 % 91 % 1004,3 hPa 0,0 l/m 0,0 km/h (0 Bft) N 0 7,7 C 9,1 C 0,0 km/h (0 Bft) 100,00 %
19.05.2019 01:17 22,9 C 9,1 C 60 % 91 % 1004,3 hPa 0,0 l/m 0,0 km/h (0 Bft) N 0 7,7 C 9,1 C 0,0 km/h (0 Bft) 95,65 %
19.05.2019 01:16 22,9 C 9,1 C 59 % 90 % 1004,3 hPa 0,0 l/m 0,0 km/h (0 Bft) N 0 7,5 C 9,1 C 0,0 km/h (0 Bft) 100,00 %
19.05.2019 01:15 22,9 C 9,1 C 60 % 90 % 1004,3 hPa 0,0 l/m 0,0 km/h (0 Bft) N 0 7,5 C 9,1 C 0,0 km/h (0 Bft) 95,65 %
19.05.2019 01:14 22,9 C 9,2 C 60 % 90 % 1004,3 hPa 0,0 l/m 0,0 km/h (0 Bft) N 0 7,6 C 9,2 C 0,0 km/h (0 Bft) 95,65 %
19.05.2019 01:13 22,9 C 9,2 C 59 % 90 % 1004,3 hPa 0,0 l/m 0,0 km/h (0 Bft) N 0 7,6 C 9,2 C 0,0 km/h (0 Bft) 100,00 %
19.05.2019 01:12 22,9 C 9,2 C 59 % 90 % 1004,4 hPa 0,0 l/m 0,0 km/h (0 Bft) N 0 7,6 C 9,2 C 0,0 km/h (0 Bft) 100,00 %
19.05.2019 01:11 22,9 C 9,3 C 59 % 90 % 1004,3 hPa 0,0 l/m 0,0 km/h (0 Bft) N 0 7,7 C 9,3 C 0,0 km/h (0 Bft) 100,00 %
19.05.2019 01:10 22,9 C 9,3 C 59 % 90 % 1004,4 hPa 0,0 l/m 0,0 km/h (0 Bft) N 0 7,7 C 9,3 C 0,0 km/h (0 Bft) 100,00 %
19.05.2019 01:09 22,9 C 9,3 C 59 % 90 % 1004,4 hPa 0,0 l/m 0,0 km/h (0 Bft) N 0 7,7 C 9,3 C 0,0 km/h (0 Bft) 95,65 %
19.05.2019 01:08 22,9 C 9,4 C 59 % 90 % 1004,3 hPa 0,0 l/m 0,0 km/h (0 Bft) N 0 7,8 C 9,4 C 0,0 km/h (0 Bft) 100,00 %
19.05.2019 01:07 22,9 C 9,4 C 59 % 90 % 1004,3 hPa 0,0 l/m 0,0 km/h (0 Bft) N 0 7,8 C 9,4 C 0,0 km/h (0 Bft) 100,00 %
19.05.2019 01:06 22,9 C 9,4 C 59 % 90 % 1004,4 hPa 0,0 l/m 0,0 km/h (0 Bft) N 0 7,8 C 9,4 C 0,0 km/h (0 Bft) 100,00 %
19.05.2019 01:05 22,9 C 9,4 C 59 % 90 % 1004,4 hPa 0,0 l/m 0,0 km/h (0 Bft) N 0 7,8 C 9,4 C 0,0 km/h (0 Bft) 100,00 %
19.05.2019 01:04 22,9 C 9,5 C 59 % 90 % 1004,4 hPa 0,0 l/m 0,0 km/h (0 Bft) N 0 7,9 C 9,5 C 0,0 km/h (0 Bft) 100,00 %
19.05.2019 01:03 22,9 C 9,5 C 59 % 89 % 1004,3 hPa 0,0 l/m 0,0 km/h (0 Bft) N 0 7,8 C 9,5 C 0,0 km/h (0 Bft) 100,00 %
19.05.2019 01:02 22,9 C 9,5 C 59 % 89 % 1004,5 hPa 0,0 l/m 0,0 km/h (0 Bft) N 0 7,8 C 9,5 C 0,0 km/h (0 Bft) 100,00 %
19.05.2019 01:01 22,9 C 9,6 C 59 % 89 % 1004,4 hPa 0,0 l/m 0,0 km/h (0 Bft) N 0 7,9 C 9,6 C 0,0 km/h (0 Bft) 100,00 %
19.05.2019 01:00 22,9 C 9,6 C 59 % 89 % 1004,4 hPa 0,0 l/m 0,0 km/h (0 Bft) N 0 7,9 C 9,6 C 0,0 km/h (0 Bft) 95,65 %
19.05.2019 00:59 22,9 C 9,6 C 59 % 89 % 1004,4 hPa 0,0 l/m 0,0 km/h (0 Bft) N 0 7,9 C 9,6 C 0,0 km/h (0 Bft) 100,00 %
19.05.2019 00:58 22,9 C 9,6 C 59 % 88 % 1004,5 hPa 0,0 l/m 0,0 km/h (0 Bft) N 0 7,7 C 9,6 C 0,0 km/h (0 Bft) 100,00 %
19.05.2019 00:57 22,9 C 9,7 C 59 % 88 % 1004,5 hPa 0,0 l/m 0,0 km/h (0 Bft) N 0 7,8 C 9,7 C 0,0 km/h (0 Bft) 95,65 %
19.05.2019 00:56 22,9 C 9,7 C 59 % 88 % 1004,5 hPa 0,0 l/m 0,0 km/h (0 Bft) N 0 7,8 C 9,7 C 0,0 km/h (0 Bft) 100,00 %
19.05.2019 00:55 22,9 C 9,8 C 59 % 88 % 1004,4 hPa 0,0 l/m 0,0 km/h (0 Bft) N 0 7,9 C 9,8 C 0,0 km/h (0 Bft) 100,00 %
19.05.2019 00:54 22,9 C 9,8 C 59 % 88 % 1004,5 hPa 0,0 l/m 0,0 km/h (0 Bft) N 0 7,9 C 9,8 C 0,0 km/h (0 Bft) 100,00 %
19.05.2019 00:53 22,9 C 9,9 C 59 % 88 % 1004,4 hPa 0,0 l/m 0,0 km/h (0 Bft) N 0 8,0 C 9,9 C 0,0 km/h (0 Bft) 100,00 %
19.05.2019 00:52 22,9 C 9,9 C 59 % 88 % 1004,4 hPa 0,0 l/m 0,0 km/h (0 Bft) N 0 8,0 C 9,9 C 0,0 km/h (0 Bft) 100,00 %
19.05.2019 00:51 22,9 C 9,9 C 59 % 88 % 1004,4 hPa 0,0 l/m 0,0 km/h (0 Bft) N 0 8,0 C 9,9 C 0,0 km/h (0 Bft) 95,65 %
19.05.2019 00:50 22,9 C 10,0 C 59 % 88 % 1004,5 hPa 0,0 l/m 0,0 km/h (0 Bft) N 0 8,1 C 10,0 C 0,0 km/h (0 Bft) 95,65 %
19.05.2019 00:49 22,9 C 10,1 C 59 % 87 % 1004,5 hPa 0,0 l/m 0,0 km/h (0 Bft) N 0 8,0 C 10,1 C 0,0 km/h (0 Bft) 100,00 %
19.05.2019 00:48 22,9 C 10,1 C 59 % 87 % 1004,5 hPa 0,0 l/m 0,0 km/h (0 Bft) N 0 8,0 C 10,1 C 0,0 km/h (0 Bft) 100,00 %
19.05.2019 00:47 22,9 C 10,1 C 59 % 87 % 1004,5 hPa 0,0 l/m 0,0 km/h (0 Bft) N 0 8,0 C 10,1 C 0,0 km/h (0 Bft) 100,00 %
19.05.2019 00:46 22,9 C 10,2 C 59 % 88 % 1004,5 hPa 0,0 l/m 0,0 km/h (0 Bft) N 0 8,3 C 10,2 C 0,0 km/h (0 Bft) 100,00 %
19.05.2019 00:45 22,9 C 10,2 C 59 % 88 % 1004,5 hPa 0,0 l/m 0,0 km/h (0 Bft) N 0 8,3 C 10,2 C 0,0 km/h (0 Bft) 100,00 %
19.05.2019 00:44 22,9 C 10,2 C 59 % 88 % 1004,5 hPa 0,0 l/m 0,0 km/h (0 Bft) N 0 8,3 C 10,2 C 0,0 km/h (0 Bft) 100,00 %
19.05.2019 00:43 22,9 C 10,3 C 59 % 88 % 1004,5 hPa 0,0 l/m 0,0 km/h (0 Bft) N 0 8,4 C 10,3 C 0,0 km/h (0 Bft) 100,00 %
19.05.2019 00:42 22,9 C 10,3 C 59 % 88 % 1004,5 hPa 0,0 l/m 0,0 km/h (0 Bft) N 0 8,4 C 10,3 C 0,0 km/h (0 Bft) 100,00 %
19.05.2019 00:41 22,9 C 10,3 C 59 % 88 % 1004,5 hPa 0,0 l/m 0,0 km/h (0 Bft) N 0 8,4 C 10,3 C 0,0 km/h (0 Bft) 100,00 %
19.05.2019 00:40 22,9 C 10,3 C 59 % 88 % 1004,5 hPa 0,0 l/m 0,0 km/h (0 Bft) N 0 8,4 C 10,3 C 0,0 km/h (0 Bft) 100,00 %
19.05.2019 00:39 22,9 C 10,3 C 59 % 88 % 1004,4 hPa 0,0 l/m 0,0 km/h (0 Bft) N 0 8,4 C 10,3 C 0,0 km/h (0 Bft) 95,65 %
19.05.2019 00:38 22,9 C 10,3 C 59 % 88 % 1004,5 hPa 0,0 l/m 0,0 km/h (0 Bft) N 0 8,4 C 10,3 C 0,0 km/h (0 Bft) 95,65 %
19.05.2019 00:37 22,9 C 10,3 C 59 % 88 % 1004,5 hPa 0,0 l/m 0,0 km/h (0 Bft) N 0 8,4 C 10,3 C 0,0 km/h (0 Bft) 100,00 %
19.05.2019 00:36 22,9 C 10,3 C 59 % 88 % 1004,5 hPa 0,0 l/m 0,0 km/h (0 Bft) N 0 8,4 C 10,3 C 0,0 km/h (0 Bft) 95,65 %
19.05.2019 00:35 22,9 C 10,2 C 59 % 88 % 1004,5 hPa 0,0 l/m 0,0 km/h (0 Bft) N 0 8,3 C 10,2 C 0,0 km/h (0 Bft) 100,00 %
19.05.2019 00:34 22,9 C 10,2 C 59 % 88 % 1004,5 hPa 0,0 l/m 0,0 km/h (0 Bft) O-SO 112 8,3 C 10,2 C 1,6 km/h (1 Bft) 95,65 %
19.05.2019 00:33 22,9 C 10,3 C 59 % 87 % 1004,6 hPa 0,0 l/m 0,0 km/h (0 Bft) N 0 8,2 C 10,3 C 0,0 km/h (0 Bft) 100,00 %
19.05.2019 00:32 22,9 C 10,3 C 59 % 87 % 1004,6 hPa 0,0 l/m 0,0 km/h (0 Bft) O-SO 112 8,2 C 10,3 C 1,6 km/h (1 Bft) 100,00 %
19.05.2019 00:31 22,9 C 10,3 C 58 % 87 % 1004,6 hPa 0,0 l/m 0,0 km/h (0 Bft) N 0 8,2 C 10,3 C 0,0 km/h (0 Bft) 100,00 %
19.05.2019 00:30 22,9 C 10,3 C 58 % 87 % 1004,6 hPa 0,0 l/m 0,0 km/h (0 Bft) O-SO 112 8,2 C 10,3 C 1,6 km/h (1 Bft) 100,00 %
19.05.2019 00:29 22,9 C 10,4 C 58 % 87 % 1004,5 hPa 0,0 l/m 0,0 km/h (0 Bft) N 0 8,3 C 10,4 C 0,0 km/h (0 Bft) 100,00 %
19.05.2019 00:28 22,9 C 10,4 C 58 % 86 % 1004,6 hPa 0,0 l/m 0,0 km/h (0 Bft) N 0 8,2 C 10,4 C 0,0 km/h (0 Bft) 100,00 %
19.05.2019 00:27 22,9 C 10,5 C 58 % 86 % 1004,5 hPa 0,0 l/m 0,0 km/h (0 Bft) N 0 8,3 C 10,5 C 0,0 km/h (0 Bft) 100,00 %
19.05.2019 00:26 22,9 C 10,6 C 58 % 86 % 1004,5 hPa 0,0 l/m 0,0 km/h (0 Bft) N 0 8,4 C 10,6 C 0,0 km/h (0 Bft) 95,65 %
19.05.2019 00:25 22,9 C 10,7 C 58 % 86 % 1004,5 hPa 0,0 l/m 0,0 km/h (0 Bft) O-SO 112 8,5 C 10,7 C 1,6 km/h (1 Bft) 100,00 %
19.05.2019 00:24 22,9 C 10,7 C 58 % 86 % 1004,5 hPa 0,0 l/m 0,0 km/h (0 Bft) N 0 8,5 C 10,7 C 0,0 km/h (0 Bft) 100,00 %
19.05.2019 00:23 22,9 C 10,8 C 58 % 86 % 1004,6 hPa 0,0 l/m 0,0 km/h (0 Bft) N 0 8,6 C 10,8 C 0,0 km/h (0 Bft) 100,00 %
19.05.2019 00:22 22,9 C 10,8 C 58 % 86 % 1004,6 hPa 0,0 l/m 0,0 km/h (0 Bft) N 0 8,6 C 10,8 C 0,0 km/h (0 Bft) 100,00 %
19.05.2019 00:21 22,9 C 10,8 C 58 % 86 % 1004,6 hPa 0,0 l/m 0,0 km/h (0 Bft) N 0 8,6 C 10,8 C 0,0 km/h (0 Bft) 100,00 %
19.05.2019 00:20 22,9 C 10,8 C 58 % 85 % 1004,5 hPa 0,0 l/m 0,0 km/h (0 Bft) N 0 8,4 C 10,8 C 0,0 km/h (0 Bft) 100,00 %
19.05.2019 00:19 22,9 C 10,9 C 58 % 85 % 1004,6 hPa 0,0 l/m 0,0 km/h (0 Bft) N 0 8,5 C 10,9 C 0,0 km/h (0 Bft) 95,65 %
19.05.2019 00:18 22,9 C 10,9 C 58 % 85 % 1004,6 hPa 0,0 l/m 0,0 km/h (0 Bft) N 0 8,5 C 10,9 C 0,0 km/h (0 Bft) 100,00 %
19.05.2019 00:17 22,9 C 10,9 C 58 % 85 % 1004,6 hPa 0,0 l/m 0,0 km/h (0 Bft) SO 135 8,5 C 10,9 C 1,6 km/h (1 Bft) 100,00 %
19.05.2019 00:16 22,9 C 10,9 C 58 % 85 % 1004,6 hPa 0,0 l/m 0,0 km/h (0 Bft) O 90 8,5 C 10,9 C 1,6 km/h (1 Bft) 100,00 %
19.05.2019 00:15 22,9 C 10,9 C 58 % 85 % 1004,5 hPa 0,0 l/m 0,0 km/h (0 Bft) N 0 8,5 C 10,9 C 0,0 km/h (0 Bft) 95,65 %
19.05.2019 00:14 22,9 C 10,9 C 58 % 85 % 1004,6 hPa 0,0 l/m 0,0 km/h (0 Bft) N 0 8,5 C 10,9 C 0,0 km/h (0 Bft) 95,65 %
19.05.2019 00:13 22,9 C 10,9 C 58 % 85 % 1004,7 hPa 0,0 l/m 0,0 km/h (0 Bft) O 90 8,5 C 10,9 C 1,6 km/h (1 Bft) 100,00 %
19.05.2019 00:12 22,9 C 10,9 C 58 % 85 % 1004,6 hPa 0,0 l/m 0,0 km/h (0 Bft) N 0 8,5 C 10,9 C 0,0 km/h (0 Bft) 100,00 %
19.05.2019 00:11 22,9 C 10,9 C 58 % 85 % 1004,6 hPa 0,0 l/m 0,0 km/h (0 Bft) O 90 8,5 C 10,9 C 1,6 km/h (1 Bft) 100,00 %
19.05.2019 00:10 22,9 C 10,9 C 58 % 85 % 1004,6 hPa 0,0 l/m 0,0 km/h (0 Bft) N 0 8,5 C 10,9 C 0,0 km/h (0 Bft) 100,00 %
19.05.2019 00:09 22,9 C 10,9 C 58 % 85 % 1004,6 hPa 0,0 l/m 0,0 km/h (0 Bft) N 0 8,5 C 10,9 C 0,0 km/h (0 Bft) 100,00 %
19.05.2019 00:08 23,0 C 10,9 C 58 % 85 % 1004,6 hPa 0,0 l/m 0,0 km/h (0 Bft) N 0 8,5 C 10,9 C 0,0 km/h (0 Bft) 100,00 %
19.05.2019 00:07 23,0 C 10,9 C 58 % 85 % 1004,6 hPa 0,0 l/m 0,0 km/h (0 Bft) O 90 8,5 C 10,9 C 1,6 km/h (1 Bft) 100,00 %
19.05.2019 00:06 22,9 C 11,0 C 58 % 85 % 1004,6 hPa 0,0 l/m 0,0 km/h (0 Bft) N 0 8,6 C 11,0 C 0,0 km/h (0 Bft) 100,00 %
19.05.2019 00:05 22,9 C 11,0 C 58 % 84 % 1004,6 hPa 0,0 l/m 0,0 km/h (0 Bft) N 0 8,4 C 11,0 C 0,0 km/h (0 Bft) 95,65 %
19.05.2019 00:04 22,9 C 11,1 C 58 % 84 % 1004,6 hPa 0,0 l/m 0,0 km/h (0 Bft) N 0 8,5 C 11,1 C 0,0 km/h (0 Bft) 100,00 %
19.05.2019 00:03 22,9 C 11,1 C 58 % 84 % 1004,7 hPa 0,0 l/m 0,0 km/h (0 Bft) N 0 8,5 C 11,1 C 0,0 km/h (0 Bft) 100,00 %
19.05.2019 00:02 22,9 C 11,2 C 58 % 84 % 1004,6 hPa 0,0 l/m 0,0 km/h (0 Bft) N 0 8,6 C 11,2 C 0,0 km/h (0 Bft) 95,65 %
19.05.2019 00:01 23,0 C 11,2 C 58 % 84 % 1004,7 hPa 0,0 l/m 0,0 km/h (0 Bft) N 0 8,6 C 11,2 C 0,0 km/h (0 Bft) 95,65 %
19.05.2019 00:00 22,9 C 11,3 C 57 % 84 % 1004,7 hPa 0,0 l/m 0,0 km/h (0 Bft) N 0 8,7 C 11,3 C 0,0 km/h (0 Bft) 95,65 %
_ Min-Zeit 10:01 06:03 09:51 12:33 13:02 - 00:00 - - 06:03 06:03 00:00 06:51
Minimum _ 22,0 C 5,7 C 50 % 46 % 1002,6 hPa - 0,0 km/h (0 Bft) - - 5,0 C 5,7 C 0,0 km/h (0 Bft) 86,96 %
_ Max-Zeit 12:26 13:02 02:45 05:46 00:00 00:00 12:18 - - 11:32 13:04 13:02 00:03
Maximum _ 23,1 C 22,3 C 61 % 96 % 1004,7 hPa 0,0 l/m 9,7 km/h
O-NO (2 Bft)
- - 12,8 C 22,2 C 14,5 km/h
NO (3 Bft)
100,00 %
Durchschnitt _ 22,7 C 11,7 C 59 % 83 % 1004,1 hPa #0,0 l/m 1,1 km/h (1 Bft) O-NO - 8,6 C 11,7 C 2,0 km/h (1 Bft) 98,87 %